GFSGBSN_sfc_dewp_039.txt.gz
Dewpoint
48 49 49 49 50 51 51 51 52 54 53 51 49 49 49 49 51 53 53 53 53 54 55 57 57 58 53 45 40 50 58 56 45 37 35 33 24 20 19 23 25 16 17 18 22 20 28
49 49 49 49 49 49 50 50 52 52 53 53 52 49 48 49 49 50 52 53 53 53 54 55 57 57 51 43 39 50 48 43 36 31 29 32 24 22 27 25 26 24 23 22 22 20 32
49 49 49 51 51 51 50 51 52 52 52 52 52 52 51 48 48 49 51 52 52 53 53 55 56 54 49 43 39 45 42 38 34 29 27 29 27 28 27 27 30 27 24 22 21 20 35
48 49 49 50 50 51 51 51 51 52 51 52 52 52 52 51 50 50 50 51 51 52 52 54 57 51 45 42 41 40 38 38 35 31 28 29 30 30 31 29 27 24 22 20 20 34 37
48 48 48 50 50 50 51 51 51 51 51 51 52 52 52 52 51 50 50 50 50 51 52 54 53 49 44 44 40 39 36 34 37 33 30 28 31 29 28 25 24 24 19 18 18 28 38
47 48 49 50 50 51 51 51 51 51 51 51 52 52 52 52 51 51 50 50 49 50 52 52 50 44 44 32 34 35 33 30 36 32 31 30 28 25 24 23 21 22 19 27 24 30 37
48 49 49 50 51 51 50 50 51 51 51 51 51 51 52 51 51 51 49 44 42 48 49 45 42 35 32 34 33 31 31 29 35 30 27 29 26 23 22 23 23 21 18 19 25 30 33
48 49 49 49 50 50 49 50 51 51 51 51 51 51 51 51 51 51 48 42 41 40 39 43 45 43 43 42 35 31 26 27 33 28 27 27 25 25 25 24 23 23 20 17 19 29 29
49 49 49 49 49 49 49 50 50 50 51 51 51 51 51 50 51 48 44 42 42 40 39 35 36 30 27 27 30 31 24 25 32 29 26 25 26 26 25 25 24 22 19 18 22 25 24
49 49 49 49 49 50 50 50 50 50 50 50 51 50 50 49 47 44 41 45 49 44 37 27 18 22 22 22 26 26 30 26 33 29 27 27 27 26 26 26 22 18 19 19 21 24 21
49 49 49 50 50 50 50 50 51 51 51 50 50 51 50 49 45 43 44 44 44 47 10 16 14 19 19 22 26 26 28 28 29 30 28 27 27 26 26 24 23 20 25 29 28 25 23
48 48 49 50 49 50 50 50 51 51 50 50 50 50 50 47 46 44 45 45 48 35 24 16 26 27 26 21 23 26 25 28 26 29 28 26 27 25 24 25 23 21 27 28 27 25 22
47 48 48 49 49 49 50 50 51 51 51 50 50 50 48 43 39 45 49 46 34 24 6 -0 24 26 27 27 23 25 26 24 23 22 24 24 24 24 24 24 24 22 23 22 21 22 22
47 47 48 48 49 49 49 50 50 51 51 50 50 49 49 44 42 43 47 39 27 17 16 14 13 25 27 26 27 27 25 24 23 24 24 22 22 23 24 23 22 22 23 26 19 23 25
46 47 47 47 48 48 49 49 50 50 50 50 49 48 47 45 44 47 42 30 24 22 14 11 9 12 15 28 27 26 25 25 25 22 22 24 22 23 21 22 21 21 23 24 25 34 29
46 46 47 47 47 48 48 49 49 50 50 50 47 45 43 45 45 45 37 29 28 27 20 18 13 15 11 18 26 27 27 25 25 22 24 27 24 24 23 22 24 22 25 25 28 26 24
45 46 46 46 47 47 48 49 49 50 50 50 46 40 43 45 46 39 31 29 27 28 28 26 19 14 13 18 18 18 25 25 24 24 24 23 24 25 26 22 20 24 22 28 30 31 26
45 45 46 46 46 47 47 48 49 49 49 49 44 35 42 44 36 36 31 31 32 25 28 28 26 23 21 21 19 20 32 33 36 31 24 25 28 23 22 26 23 22 22 24 30 27 31
45 45 46 46 46 46 47 47 48 49 49 47 40 39 45 41 30 30 31 31 31 30 27 26 25 24 24 22 20 35 37 39 41 38 34 26 24 22 22 21 23 21 23 25 28 32 28
45 45 45 46 46 46 47 47 48 49 49 47 40 32 39 40 33 29 28 29 29 31 32 28 25 25 24 24 24 32 36 37 41 40 43 40 24 22 21 22 26 26 26 24 24 28 28
45 45 45 45 46 46 47 47 47 48 49 47 39 33 36 32 33 31 29 28 27 29 29 29 25 25 24 22 22 27 34 38 38 41 42 41 29 23 21 24 25 25 25 26 23 26 28
45 45 45 46 46 47 47 48 47 48 49 45 32 34 38 31 34 32 31 27 26 27 26 26 23 24 24 22 22 22 35 39 39 41 40 41 32 30 27 22 23 23 26 26 23 24 29
45 46 46 46 46 46 46 46 46 47 47 44 42 40 35 34 33 33 31 30 28 29 29 27 26 24 24 25 29 39 40 42 43 38 36 40 36 29 24 29 26 24 26 24 25 24 23
46 46 45 45 45 46 46 46 46 46 46 44 40 41 37 32 32 32 31 31 29 29 28 28 27 26 25 35 43 42 42 42 43 43 42 36 36 34 28 30 24 26 27 26 24 23 22
45 45 45 45 45 45 45 45 45 46 46 45 42 41 38 32 33 31 31 30 30 31 30 29 29 29 27 35 35 32 32 34 37 39 41 40 36 33 29 27 29 30 25 24 24 22 25
45 45 46 46 46 45 45 45 45 45 46 45 42 43 41 35 34 31 30 30 29 29 30 31 31 32 31 29 31 26 26 31 29 32 38 39 37 34 33 27 25 30 30 27 29 24 27
46 46 46 46 46 46 46 46 46 45 46 45 43 44 41 34 38 35 30 30 30 31 29 29 31 33 33 28 27 27 28 31 27 28 31 31 31 30 30 29 30 32 29 32 26 27 33
46 46 46 46 46 46 46 46 46 45 45 45 42 44 41 37 40 39 38 33 31 31 30 31 33 34 33 28 29 29 29 32 29 30 31 31 31 32 34 29 27 37 32 28 31 34 33
46 45 45 46 46 45 45 45 46 46 46 45 41 43 43 41 40 42 42 42 35 32 32 34 31 33 35 31 31 32 27 30 25 22 35 32 33 33 36 35 39 36 39 41 41 39 38

GFSGBSN_sfc_dewp_042.txt.gz
Dewpoint
49 50 50 50 49 49 49 49 52 52 53 53 53 53 52 51 49 49 49 51 52 53 52 52 53 54 53 47 43 45 59 56 46 38 33 31 33 24 19 18 24 24 19 20 22 27 43
49 49 49 50 50 50 50 49 51 52 52 53 53 52 52 52 51 50 51 51 51 52 53 52 52 56 51 42 36 41 49 44 36 32 29 34 33 26 21 26 26 28 28 25 22 23 46
48 49 49 50 50 50 50 51 51 52 52 52 52 53 53 52 52 52 51 51 51 51 51 51 52 53 46 43 41 39 41 38 35 32 25 29 32 27 29 26 31 27 23 23 22 23 36
48 48 49 50 51 51 51 51 52 51 51 52 52 52 52 52 52 52 52 51 51 51 51 52 52 51 43 45 45 44 43 41 39 35 31 30 30 29 29 31 27 24 24 20 20 34 35
47 48 48 50 51 51 51 51 51 52 52 52 52 52 52 52 52 51 51 51 51 51 51 52 51 49 43 48 43 43 38 35 36 37 33 29 30 27 28 25 23 26 20 21 21 27 36
48 48 49 50 51 51 52 51 51 51 52 52 52 52 52 52 51 51 51 51 49 51 49 51 51 44 43 29 36 35 38 33 34 38 35 29 28 25 25 23 19 21 21 19 20 33 36
48 48 48 49 50 50 50 50 51 51 51 51 52 51 51 52 51 51 49 44 38 44 48 46 44 40 33 34 41 34 34 32 31 32 28 29 26 24 23 24 23 23 22 20 20 29 35
46 47 48 48 49 50 49 50 51 51 51 51 51 51 51 51 51 51 48 42 40 38 34 37 42 44 43 42 40 37 33 27 30 31 28 27 25 26 27 26 25 24 22 22 20 27 30
46 47 48 48 49 49 49 50 51 51 51 51 51 51 51 50 50 48 45 42 41 42 37 34 36 38 40 40 40 36 33 27 31 32 28 25 26 27 27 25 24 24 23 22 17 24 26
47 48 47 47 48 48 49 50 51 51 51 51 51 51 50 49 45 45 42 44 44 46 33 25 27 28 30 27 27 26 30 25 29 30 31 26 26 25 26 25 24 23 26 22 19 23 20
46 47 46 46 47 49 50 50 51 51 51 51 51 51 50 49 43 41 43 41 45 42 -6 5 20 28 29 20 21 25 27 27 24 31 30 29 28 26 25 25 26 26 28 23 25 24 23
45 45 45 46 48 49 49 50 50 51 51 51 51 51 50 47 45 44 43 44 47 32 16 20 20 21 22 20 25 26 26 31 29 31 31 29 29 27 27 27 27 26 25 26 27 25 22
45 44 44 46 47 48 49 49 49 50 51 51 50 50 49 45 38 42 42 46 34 25 14 4 22 27 23 20 21 25 25 25 24 24 25 28 29 29 27 25 26 24 23 22 21 22 22
44 44 45 46 47 48 48 48 49 50 50 50 50 50 49 46 44 43 44 39 28 20 13 15 16 13 25 25 22 23 25 24 24 25 23 21 23 25 26 24 24 24 23 23 19 22 21
42 43 45 46 46 47 47 48 49 49 50 50 50 49 47 46 44 47 39 31 26 24 22 15 8 8 13 18 27 24 26 24 25 24 24 24 22 24 24 24 24 24 22 25 24 31 27
41 43 45 46 46 47 47 47 48 49 50 50 47 46 44 45 45 44 35 29 28 28 24 26 19 15 14 16 23 26 27 28 27 27 25 26 24 26 23 25 24 22 24 23 27 21 23
43 44 45 45 45 46 46 47 48 49 49 50 46 40 44 45 45 39 29 29 27 28 28 27 24 24 19 18 20 22 24 29 31 29 26 24 24 24 26 26 22 23 22 28 27 29 24
44 44 45 45 45 46 46 47 47 48 49 48 44 35 44 45 35 34 29 29 33 29 30 28 29 27 22 23 22 21 26 27 40 38 35 34 26 22 21 22 25 23 22 26 25 26 29
44 44 45 45 45 46 46 47 47 47 48 46 40 38 45 40 29 30 29 29 30 30 28 28 27 28 27 24 23 25 29 42 42 40 39 39 34 23 22 23 25 23 23 23 30 32 28
44 44 44 45 45 46 46 47 47 47 48 46 39 32 39 40 34 29 27 26 27 30 30 30 30 30 26 26 25 25 30 38 42 42 44 43 38 32 24 22 24 25 22 23 25 27 25
43 44 44 45 45 46 46 46 46 47 48 46 38 32 36 32 33 32 29 27 26 26 30 31 30 28 27 25 23 23 27 38 40 43 42 42 37 36 35 32 24 22 24 25 24 26 25
43 44 44 45 45 45 46 46 46 47 47 44 33 34 37 33 34 33 31 28 26 27 27 27 29 27 26 25 24 24 26 27 35 40 38 40 36 35 32 32 27 22 21 25 24 26 26
43 44 44 45 45 46 47 47 47 47 47 42 42 40 37 34 35 33 30 28 28 28 29 28 28 28 25 25 27 33 35 38 38 37 36 37 35 33 28 31 28 24 23 22 28 27 27
44 44 45 46 46 47 46 46 46 47 48 45 43 42 36 32 34 32 30 30 28 29 28 29 30 29 29 29 42 40 40 41 42 40 39 36 34 34 29 30 26 27 26 23 26 26 26
44 45 46 46 46 46 45 45 45 46 47 45 44 41 38 32 34 31 31 30 30 30 30 29 29 30 32 30 33 31 29 31 36 40 40 39 35 31 28 29 30 28 28 28 26 24 27
45 45 45 45 45 45 45 45 45 45 46 45 44 43 40 35 34 33 31 31 30 29 29 30 33 33 32 30 31 24 22 27 28 34 40 37 37 32 31 25 26 30 30 31 30 24 26
44 44 44 45 45 46 46 46 45 45 46 45 44 43 39 33 37 36 31 31 31 30 29 30 31 33 34 29 27 25 23 29 26 28 31 31 31 30 29 27 32 37 35 33 27 27 33
44 45 45 45 45 46 46 46 46 46 46 45 42 44 40 35 37 40 38 33 32 31 28 30 31 34 34 29 28 26 25 29 27 30 31 29 29 29 31 29 27 39 37 33 38 42 43
46 46 46 46 46 46 46 46 46 46 46 45 41 44 44 39 39 43 42 41 37 32 31 33 31 32 35 33 31 29 25 24 27 24 34 29 32 31 32 30 39 41 41 40 43 44 44

GFSGBSN_sfc_dewp_048.txt.gz
Dewpoint
48 48 48 49 49 50 49 49 50 51 50 51 51 51 50 50 50 50 52 52 52 52 52 51 51 51 49 44 38 41 57 58 49 34 27 30 28 21 17 18 20 19 21 25 25 26 29
45 47 48 48 49 49 49 49 50 51 51 50 51 51 51 50 50 50 52 52 51 51 52 51 51 51 47 36 33 42 41 46 37 32 30 30 28 26 21 21 23 26 26 26 25 25 46
46 46 46 48 49 49 50 50 51 51 52 52 52 51 51 50 51 52 52 51 51 50 50 50 51 48 43 37 40 41 42 38 36 31 25 29 30 29 28 27 28 28 23 23 22 23 41
47 47 47 48 50 51 51 51 51 51 52 52 52 52 52 52 52 52 52 51 50 50 50 50 51 48 40 44 46 45 43 40 39 36 35 33 32 29 28 28 25 24 24 20 21 33 36
46 45 45 48 50 50 51 51 52 52 51 52 52 52 52 52 52 51 51 51 50 50 51 51 47 45 38 46 44 44 42 35 32 37 36 32 30 27 27 24 22 22 17 18 20 24 33
45 46 47 46 47 48 48 50 50 51 52 52 52 52 52 52 52 51 51 50 48 49 48 48 47 38 33 19 36 39 44 39 32 36 35 33 30 25 24 22 19 20 20 23 20 22 33
44 45 46 45 47 48 48 48 50 51 51 51 51 52 52 52 52 51 48 43 36 37 39 40 40 38 35 42 42 39 38 35 33 35 31 32 27 24 24 24 21 20 22 20 20 22 23
45 45 44 44 45 47 47 47 49 50 50 51 51 51 52 52 52 51 45 41 39 40 37 39 38 38 38 40 38 29 36 28 30 28 30 26 25 26 26 25 24 23 22 21 21 24 23
43 45 46 43 44 46 46 47 48 49 50 51 51 51 51 51 51 44 43 43 41 40 39 36 37 36 32 33 32 30 36 29 28 29 30 26 27 27 26 25 24 24 22 22 21 24 25
44 44 45 45 43 47 46 46 46 47 49 50 50 51 51 51 43 42 39 42 41 41 31 25 33 32 31 37 34 30 33 29 29 26 30 30 30 27 26 24 24 22 26 25 24 24 21
45 44 43 44 43 44 45 45 46 47 48 50 50 51 51 50 42 41 39 43 40 44 -5 7 26 30 35 23 18 29 32 30 27 29 31 29 29 28 26 25 25 24 27 26 26 24 22
43 43 45 42 42 44 43 45 46 46 48 49 50 50 51 47 47 44 44 41 44 30 11 11 21 29 31 29 24 28 29 30 28 29 32 28 30 28 27 27 26 28 27 27 27 26 22
44 44 45 44 43 42 43 44 46 46 47 48 49 50 49 46 40 42 42 42 31 23 23 12 14 21 23 25 24 24 24 26 23 23 23 26 29 30 28 26 29 27 24 21 19 22 22
44 44 44 43 43 41 43 44 46 47 47 48 48 49 48 48 44 43 40 36 24 25 25 24 21 20 20 22 20 24 21 20 24 25 24 21 20 28 30 28 27 26 25 23 19 21 18
39 42 42 43 43 43 43 43 46 46 47 48 48 44 45 47 44 44 36 26 23 25 26 24 22 16 18 19 25 23 21 20 21 25 21 22 21 24 27 29 29 27 24 25 22 26 24
40 41 42 43 43 43 42 43 44 44 46 47 43 43 42 47 45 43 33 25 27 29 29 28 21 23 19 19 20 23 27 33 27 25 27 26 22 26 26 26 27 25 26 23 25 19 20
40 41 41 42 42 42 41 42 43 44 45 47 42 38 44 46 47 39 28 28 25 24 27 28 27 23 22 19 20 18 20 33 37 35 28 25 25 24 25 25 22 24 24 25 25 25 20
40 41 41 41 42 41 41 42 43 44 46 44 41 33 45 46 36 34 29 27 29 26 31 29 29 28 26 25 21 19 20 31 40 39 34 37 28 23 22 24 25 24 24 25 24 21 27
40 41 40 40 41 41 41 42 43 45 45 43 36 37 46 45 30 30 32 29 27 29 29 29 29 30 29 22 18 24 28 36 35 39 37 37 34 28 25 25 33 30 27 30 27 27 23
39 40 40 39 41 40 41 42 43 45 46 43 36 30 38 40 37 31 31 30 26 29 28 29 30 30 27 26 26 24 26 29 38 40 44 40 36 30 29 32 34 32 30 30 32 24 23
40 40 41 41 41 40 41 41 43 45 45 43 36 31 37 31 32 33 31 28 28 25 28 29 28 29 28 25 25 23 26 27 29 40 39 36 29 34 35 35 33 30 27 28 27 30 26
40 41 41 40 40 41 41 42 44 45 45 41 32 33 36 35 34 34 33 30 27 26 26 27 28 30 28 27 25 23 24 25 24 28 36 37 28 34 31 34 32 28 28 27 29 30 29
39 40 40 41 41 40 41 42 44 44 44 40 39 40 38 31 34 32 31 30 30 28 28 26 29 28 27 27 29 30 29 29 28 28 30 34 33 31 25 30 28 24 26 27 27 26 28
39 39 39 41 41 41 42 43 43 44 44 42 40 39 34 29 31 32 32 32 30 30 27 29 28 29 30 32 32 32 32 30 30 30 34 33 31 30 26 27 20 20 29 28 26 29 31
41 42 42 42 43 43 43 43 44 45 45 43 42 39 35 29 31 34 34 34 31 31 30 29 30 30 32 31 32 28 27 32 32 35 34 36 31 25 22 25 25 22 22 23 29 17 30
42 43 43 43 43 42 43 43 45 45 45 44 43 43 39 34 31 31 36 36 33 32 30 30 31 33 32 30 29 25 21 23 28 31 37 35 32 30 28 21 15 19 29 37 36 23 37
42 43 44 45 44 43 44 44 44 45 46 45 43 44 41 32 36 34 33 35 36 33 31 31 32 33 33 31 28 26 24 26 24 25 31 31 32 30 27 27 26 30 32 38 25 22 38
43 44 43 44 44 44 44 45 45 45 45 45 43 45 41 34 37 39 37 36 37 35 31 32 32 34 34 30 28 27 24 27 25 29 30 28 26 27 29 27 21 31 38 30 32 38 38
44 44 44 44 44 44 45 44 44 44 44 44 40 45 45 38 38 40 40 39 37 35 32 32 30 33 32 30 29 28 23 22 26 23 32 27 28 27 28 27 32 38 39 41 40 38 39

GFSGBSN_sfc_dewp_051.txt.gz
Dewpoint
47 46 47 46 47 49 49 49 50 51 50 50 50 50 50 50 49 51 52 52 52 50 49 49 50 51 48 40 29 38 51 55 53 38 29 30 31 26 22 21 21 21 20 21 23 25 26
46 45 45 45 46 48 48 49 50 51 51 51 52 52 51 51 50 51 52 52 52 51 50 49 49 51 45 34 28 41 41 39 42 33 30 29 27 25 21 19 21 24 22 26 26 24 40
45 45 46 46 47 48 50 50 50 50 51 51 52 52 52 52 52 52 52 52 51 51 51 49 49 48 41 31 37 39 42 37 37 33 28 30 30 27 28 26 27 27 25 24 23 23 35
44 45 45 45 48 50 49 49 50 50 51 51 51 52 52 52 52 52 52 52 51 51 51 50 49 47 37 41 45 44 43 39 37 35 35 32 31 28 28 29 25 24 24 21 21 31 39
46 45 44 46 46 47 49 50 50 50 50 50 51 52 52 52 52 52 52 52 51 50 51 50 47 43 31 43 44 43 40 35 34 34 35 33 31 29 28 26 24 24 18 19 19 25 36
45 45 45 45 45 46 48 48 49 50 50 50 50 51 52 52 52 51 51 50 48 49 48 48 45 36 35 18 35 39 43 40 30 33 32 33 31 27 26 24 17 20 20 21 19 25 33
45 44 45 45 44 45 46 46 47 49 49 49 50 50 52 51 51 51 48 43 38 37 39 38 37 36 34 41 41 40 41 38 33 32 32 33 28 24 24 26 22 21 20 20 21 21 22
44 45 43 44 45 43 45 46 47 48 48 48 49 50 51 51 52 50 45 41 39 39 36 38 38 36 38 39 36 34 36 31 31 26 32 29 29 28 26 26 23 22 21 20 21 22 23
44 44 42 43 45 42 44 46 45 46 47 48 49 50 51 51 51 44 42 42 41 40 38 34 36 36 35 34 32 30 34 30 28 28 30 28 28 28 26 25 24 24 23 23 20 23 24
45 45 45 42 44 44 42 45 45 45 46 47 49 50 50 50 42 43 38 42 43 41 33 27 33 34 32 33 30 29 31 30 29 26 30 29 29 26 25 24 25 23 25 24 22 21 15
43 46 45 45 42 44 41 43 44 44 46 46 49 50 50 50 45 41 41 45 43 44 6 10 27 30 33 29 20 29 29 28 29 27 30 27 30 27 25 23 26 23 27 25 24 23 24
42 44 44 43 44 43 44 43 42 45 45 46 47 48 49 47 47 45 45 43 44 31 14 17 23 29 29 29 27 30 30 30 29 30 31 26 31 29 26 27 26 28 25 27 28 27 24
43 42 44 43 43 44 42 41 43 44 45 45 46 48 47 48 42 43 44 41 29 22 23 18 21 21 20 24 26 26 27 26 22 23 27 29 28 29 29 27 28 26 26 20 21 23 22
43 42 43 43 43 43 43 43 43 43 44 45 46 48 46 48 47 46 42 35 22 21 26 26 24 24 17 21 22 23 24 21 25 25 21 21 22 28 31 29 27 27 25 23 18 21 19
43 42 42 41 42 42 44 43 42 42 44 45 47 44 44 46 47 46 37 26 23 23 27 27 25 19 19 19 22 23 22 20 20 26 24 24 20 26 30 31 28 27 25 27 25 26 24
41 41 41 41 42 42 44 43 42 42 43 45 43 41 41 46 48 44 34 26 25 28 28 28 23 22 19 19 17 18 26 34 32 28 27 27 22 24 25 28 29 27 28 24 26 19 18
41 42 41 41 41 43 43 42 41 41 43 44 41 36 42 47 47 39 29 27 26 25 24 26 26 25 24 23 21 17 20 29 34 38 28 27 26 25 25 24 23 25 25 26 26 26 20
41 40 40 40 41 41 42 42 41 42 43 42 40 30 45 47 34 35 31 32 29 24 29 27 29 27 26 23 21 20 20 32 32 40 34 37 28 24 21 25 26 24 25 27 26 22 27
40 40 40 40 41 41 41 42 41 42 43 41 36 34 44 44 28 29 35 33 28 27 27 28 29 30 29 24 20 21 25 32 30 38 38 38 32 28 25 26 33 32 33 32 32 28 25
39 39 39 40 40 40 40 41 41 42 42 42 36 30 36 39 36 32 32 30 28 28 27 29 29 30 27 26 27 24 24 27 31 34 43 40 34 30 25 27 33 30 28 28 29 29 27
39 39 39 39 39 39 40 41 41 42 43 41 36 31 34 30 30 33 33 33 27 25 27 28 28 28 28 25 25 24 25 25 26 33 38 36 28 31 28 30 32 30 27 26 26 27 25
38 39 39 39 40 40 40 41 40 41 42 39 32 33 36 32 34 33 33 33 28 27 27 26 26 29 29 26 25 23 25 23 24 27 35 33 29 33 31 33 31 29 28 27 26 26 26
39 39 38 38 38 39 41 41 41 41 43 38 39 39 36 32 30 31 29 30 31 29 29 27 29 29 29 29 31 31 31 30 29 27 27 29 33 30 24 30 27 24 27 26 24 23 25
38 38 37 38 38 39 39 40 41 42 43 39 40 39 33 28 31 28 29 33 31 30 29 29 30 31 30 33 34 33 32 31 31 30 30 30 32 31 28 28 19 19 27 26 26 26 25
38 38 38 38 39 40 41 41 42 42 43 41 40 38 35 28 30 29 29 31 36 33 31 32 32 32 35 34 32 28 28 31 32 33 33 32 33 30 27 25 23 21 21 20 23 18 30
38 38 38 40 41 41 41 41 42 42 43 42 41 42 38 33 29 29 31 32 32 33 34 34 36 38 35 35 32 24 22 24 26 29 37 36 34 33 30 22 19 21 32 36 33 22 34
41 41 41 42 42 42 43 43 42 42 43 42 41 43 39 32 35 32 30 32 37 35 33 33 34 36 36 33 27 25 23 26 22 24 27 30 32 29 30 27 26 28 29 34 24 23 33
41 41 42 42 42 43 44 45 44 43 43 43 41 44 39 34 37 36 34 34 36 36 33 33 34 35 34 30 29 28 27 27 24 29 28 26 27 28 29 28 23 30 37 31 31 38 37
42 42 42 43 43 43 43 45 44 44 44 44 40 44 43 38 38 41 40 40 37 38 35 35 32 34 35 31 31 30 28 29 27 23 32 28 30 29 30 29 32 35 37 40 39 39 40

GFSGBSN_sfc_dewp_054.txt.gz
Dewpoint
46 45 46 47 46 47 47 48 49 51 51 51 51 51 52 51 51 52 52 52 52 51 51 50 50 50 46 30 14 23 52 52 47 42 30 30 24 17 15 16 22 21 17 19 20 21 25
46 46 47 46 46 46 48 49 50 50 51 51 52 52 52 51 51 52 52 53 52 52 52 51 50 50 43 28 20 31 37 35 36 39 37 30 24 21 21 20 21 20 19 19 21 23 24
45 46 46 45 46 49 50 49 49 49 50 51 52 52 52 51 51 51 52 52 52 52 52 51 50 45 41 30 24 32 34 30 35 34 29 34 31 26 22 22 22 19 21 21 22 22 21
46 45 44 45 46 47 47 48 49 49 50 50 51 51 52 52 52 52 52 52 52 52 52 51 51 45 32 34 34 37 35 29 28 33 34 29 30 28 28 24 24 20 22 18 17 19 23
44 45 44 45 46 46 47 48 49 49 50 50 50 51 52 52 52 52 52 51 51 50 51 50 47 43 26 40 35 34 33 28 24 26 34 32 30 27 25 24 20 22 16 19 17 20 23
45 45 45 45 45 44 46 46 48 48 48 49 49 50 51 52 52 51 51 51 49 48 47 45 43 38 30 13 30 39 41 39 29 23 34 33 29 23 21 19 17 17 18 15 15 17 24
45 46 46 44 44 45 44 44 47 47 48 48 48 49 50 52 51 51 46 40 34 36 35 31 30 31 30 37 38 37 42 41 32 26 27 32 26 22 18 20 19 16 17 14 12 17 20
46 45 44 45 43 44 44 44 47 46 46 47 48 49 49 50 51 50 44 39 38 38 35 35 34 34 33 32 33 32 37 34 33 23 23 32 28 24 23 21 19 18 17 15 14 19 19
44 44 46 45 43 44 44 43 44 46 45 46 47 49 49 50 51 46 42 42 42 41 34 33 34 34 34 33 27 25 35 31 30 28 17 26 22 26 26 23 21 20 18 18 17 19 20
44 44 44 46 44 43 43 42 42 43 44 45 46 48 50 50 45 43 40 42 43 43 34 21 24 30 33 30 26 26 24 30 26 23 24 22 20 25 26 22 21 19 20 21 19 19 11
44 45 43 45 44 44 45 42 42 43 43 45 46 47 49 49 45 40 41 43 43 44 11 11 23 31 30 25 23 27 26 20 19 25 26 25 22 23 23 23 21 20 21 23 22 21 18
44 44 44 42 44 45 45 44 43 42 43 45 45 46 48 44 46 43 43 45 43 31 9 14 21 21 27 25 24 27 28 22 19 25 27 23 25 23 22 22 23 23 23 23 24 21 20
44 43 43 42 44 44 44 44 43 42 43 44 44 46 46 42 41 45 46 39 30 14 17 19 22 23 21 19 24 26 27 23 16 16 21 24 22 28 28 20 25 23 23 19 18 19 18
43 42 43 42 43 44 44 44 44 44 42 44 44 46 44 40 43 47 43 34 20 15 19 25 25 21 17 20 21 22 25 21 19 16 11 14 18 24 28 25 23 24 22 19 15 19 16
42 42 43 44 42 42 43 44 44 44 42 43 44 41 42 41 45 48 38 28 14 17 23 26 21 17 16 18 18 21 23 22 19 23 15 15 14 24 27 28 24 25 25 24 21 26 24
40 41 42 42 43 42 43 44 44 42 42 42 42 39 37 43 48 46 34 23 21 25 28 26 21 23 18 20 16 17 24 30 32 22 26 23 19 22 26 28 28 27 26 25 25 19 18
42 41 41 41 43 42 41 43 43 43 41 42 41 36 37 44 48 39 29 24 24 23 25 25 25 24 22 21 20 15 22 26 29 36 31 24 26 25 26 26 25 26 26 25 24 23 20
39 39 40 42 42 40 40 42 43 43 42 42 39 31 43 48 36 34 30 26 30 24 26 24 26 26 24 24 22 20 16 25 29 32 30 25 27 24 21 26 26 25 25 25 23 23 25
39 40 41 41 41 41 41 42 42 43 42 42 34 32 43 45 29 29 30 31 29 25 24 24 25 28 26 25 21 20 20 26 27 30 35 35 25 19 19 22 26 26 28 28 29 29 25
40 40 40 39 40 40 41 41 41 41 43 44 37 31 35 39 36 31 27 29 26 29 26 26 25 28 27 26 25 22 21 22 26 27 39 38 30 24 16 19 25 29 28 27 28 28 25
39 39 38 40 40 40 39 40 41 41 43 43 36 32 29 30 30 30 30 31 26 24 27 26 25 25 26 27 25 24 23 23 23 30 34 35 28 26 25 25 24 25 25 25 24 26 25
39 39 39 39 41 41 40 40 41 41 42 41 33 31 34 28 29 29 29 29 26 26 27 25 24 26 27 28 28 23 24 25 24 25 29 32 24 26 22 21 26 25 23 22 22 22 22
38 39 38 39 40 40 40 40 41 41 42 39 39 38 36 27 26 27 26 27 24 29 29 26 27 27 31 29 30 30 30 31 30 28 28 28 32 25 17 26 23 19 23 22 22 21 20
37 38 39 39 39 39 38 40 41 41 42 40 40 38 33 26 28 25 23 23 25 26 29 29 31 30 32 34 33 32 32 31 32 30 30 27 33 32 24 29 17 15 24 23 22 20 18
37 37 38 38 39 39 40 40 40 42 41 44 42 38 35 28 23 22 24 25 25 30 34 36 32 34 37 37 34 28 28 30 30 29 29 30 30 30 26 23 19 19 15 17 19 12 24
39 37 37 38 39 40 40 40 41 41 42 43 44 43 37 30 30 22 25 26 27 27 30 35 39 39 39 36 34 24 21 21 25 27 28 30 31 30 29 20 18 19 27 30 29 19 29
40 40 39 39 40 40 41 41 41 41 41 42 41 43 38 31 32 30 28 27 31 33 33 36 37 37 39 34 30 25 22 25 23 24 29 29 30 28 26 27 23 24 23 29 26 29 33
42 41 41 40 40 41 41 41 42 42 42 42 39 44 39 33 35 35 31 30 31 33 31 35 35 35 35 33 29 26 26 23 22 26 27 26 26 28 26 25 24 27 29 27 38 37 35
43 43 41 41 41 41 42 42 43 43 43 43 40 43 44 36 36 37 36 37 32 32 35 38 34 36 34 31 29 29 29 32 23 21 29 28 26 26 25 25 32 34 36 36 39 39 39

GFSGBSN_sfc_dewp_057.txt.gz
Dewpoint
45 46 46 47 47 47 46 48 50 50 51 51 51 52 52 51 51 52 52 53 53 52 52 52 52 51 43 32 30 23 50 46 45 43 36 30 27 25 21 16 15 16 16 15 14 13 18
46 46 46 46 47 46 50 50 50 50 50 51 52 52 52 51 51 51 52 52 52 52 53 51 51 50 41 30 26 21 29 16 22 39 35 30 28 25 19 15 14 16 19 17 16 16 17
46 46 46 46 46 47 48 47 49 49 50 50 51 52 51 51 51 52 52 52 52 52 52 51 51 46 37 29 23 27 32 27 18 15 25 36 32 23 22 19 21 19 18 18 16 17 17
47 46 46 46 46 46 47 46 48 49 50 50 50 50 51 52 52 52 52 52 52 52 52 51 51 45 33 25 27 29 31 30 31 19 24 30 30 32 26 24 21 20 19 16 17 18 18
46 46 46 46 46 46 46 46 47 48 48 49 49 50 51 51 52 52 52 51 51 52 51 50 47 42 29 34 26 23 31 32 31 20 22 27 28 28 28 24 23 23 17 18 19 18 17
44 44 46 46 46 45 46 45 47 48 48 48 48 49 50 51 51 51 51 51 49 49 48 43 39 40 34 14 25 34 37 29 37 26 20 20 26 25 23 22 19 20 19 20 18 18 18
46 46 45 45 46 45 44 46 46 47 47 46 46 48 50 50 51 51 48 40 34 39 34 28 27 32 26 30 29 31 40 39 37 30 17 20 19 19 23 25 21 20 19 17 18 15 17
45 45 46 46 44 45 43 46 46 46 47 46 45 47 49 50 50 50 48 37 38 39 36 33 32 32 31 30 28 27 37 33 37 33 23 21 20 17 17 19 19 18 19 18 18 15 17
44 44 43 44 45 46 44 43 45 45 45 45 45 46 48 50 50 48 40 39 40 41 34 29 29 29 30 31 27 24 31 29 37 34 33 23 19 23 21 21 19 20 20 19 18 16 19
44 44 45 44 43 46 45 44 43 42 44 45 46 46 48 49 45 41 38 39 41 43 32 15 20 28 31 29 26 26 22 31 29 31 32 30 20 23 23 21 23 22 21 20 18 18 16
44 45 45 45 44 44 46 45 44 42 43 43 45 46 47 48 41 39 39 42 43 43 18 7 23 30 29 26 23 23 21 20 27 25 27 26 21 19 21 22 24 22 22 21 20 20 20
45 44 45 44 44 45 44 46 45 43 42 42 44 45 46 40 44 42 41 45 43 35 14 10 17 19 19 22 25 22 28 25 20 23 21 24 26 25 25 22 21 21 21 21 23 22 21
43 44 44 43 43 44 43 45 45 43 43 42 43 44 43 39 37 43 45 42 29 19 13 15 17 19 18 19 21 24 26 24 19 20 20 16 23 24 24 22 22 21 22 20 19 21 20
42 42 44 43 43 44 43 44 45 44 44 42 43 44 41 36 38 45 44 33 21 10 12 19 19 16 14 18 22 22 26 24 22 21 21 15 20 22 25 23 19 21 22 20 18 22 19
42 42 41 42 43 44 43 43 42 44 44 42 43 36 36 39 42 41 39 30 14 11 14 17 14 9 11 18 19 19 22 26 21 20 18 15 10 16 23 24 23 23 22 20 22 24 25
42 42 40 41 43 43 43 43 42 43 43 42 33 37 35 39 43 43 36 25 17 18 22 17 11 15 15 19 19 18 23 29 29 26 20 19 15 12 19 26 25 23 23 21 23 21 21
39 39 40 42 43 42 43 42 42 42 42 42 35 35 35 40 44 40 31 25 19 17 23 20 17 20 18 20 20 19 23 28 30 30 27 21 24 20 22 24 22 23 24 26 23 23 22
40 39 39 40 40 41 43 41 42 42 43 40 36 32 40 44 35 35 30 25 26 20 21 21 23 24 23 22 21 20 19 21 30 32 34 27 27 22 26 22 25 24 25 28 25 26 25
40 39 39 40 40 42 43 42 41 42 43 39 32 31 37 44 31 30 27 24 23 21 21 21 20 22 22 22 21 21 20 24 25 28 32 35 25 22 22 25 25 24 24 25 27 28 29
39 38 39 40 41 41 41 41 41 42 42 41 37 33 30 41 36 30 25 26 24 26 23 21 19 21 24 23 23 22 22 21 25 25 38 37 33 22 18 22 21 25 26 26 26 27 26
38 39 39 40 40 39 40 41 41 41 41 42 36 32 30 30 28 30 29 30 23 24 24 22 21 21 22 21 21 22 25 23 22 29 28 37 32 32 22 25 24 23 25 25 25 26 25
38 38 39 40 40 40 41 41 41 42 42 40 35 31 29 27 29 25 27 28 26 24 24 22 22 21 23 22 22 24 25 27 26 24 26 35 32 30 29 24 23 24 24 23 22 21 21
38 38 38 39 39 40 40 41 41 41 42 39 36 37 36 28 25 27 27 22 21 23 27 28 25 24 25 25 28 31 32 34 31 28 28 28 28 31 27 25 23 22 23 24 24 23 23
38 38 38 38 39 39 40 41 41 41 42 41 39 35 34 28 25 23 21 27 24 23 23 26 28 30 29 34 34 31 30 29 29 29 30 28 28 27 27 27 23 20 20 19 21 20 20
39 39 39 38 38 39 39 41 41 41 41 44 41 39 34 30 21 20 25 26 21 25 28 27 31 36 39 36 31 27 28 29 31 28 28 29 29 28 24 23 20 15 17 17 17 14 16
41 39 39 40 39 40 41 41 41 41 41 44 42 43 38 32 27 23 21 20 24 26 26 31 34 40 40 37 34 25 23 23 23 24 27 27 30 30 27 21 18 18 20 26 22 15 26
42 42 42 41 40 40 40 41 41 41 41 41 42 43 39 32 28 28 30 29 29 28 28 32 35 36 39 35 31 28 25 24 24 26 25 28 28 26 26 23 20 18 23 23 23 27 32
43 43 44 43 41 40 40 41 41 41 41 42 39 41 40 34 30 29 28 28 31 33 33 34 35 36 35 33 29 27 28 25 23 27 26 24 26 27 26 25 21 25 24 25 37 35 35
44 44 44 44 42 41 41 41 41 41 41 42 38 35 43 37 31 35 34 31 34 32 33 37 34 36 34 33 30 32 30 32 25 22 32 26 26 26 24 24 30 29 36 38 37 37 37

GFSGBSN_sfc_dewp_060.txt.gz
Dewpoint
46 45 46 47 47 47 48 50 50 50 50 50 50 51 51 51 51 51 52 53 53 53 53 51 51 51 46 27 29 30 48 47 47 43 34 32 32 27 26 25 22 18 17 17 17 16 14
46 46 45 47 47 46 46 48 47 48 50 50 51 51 51 50 50 51 52 52 52 52 52 52 51 51 43 31 28 27 24 24 14 35 36 33 28 26 25 22 20 18 16 15 15 16 16
46 46 46 47 47 47 47 47 46 48 50 50 49 50 50 50 50 51 52 52 52 52 52 52 51 47 40 31 26 26 24 30 28 14 13 16 27 32 27 23 21 18 15 15 17 18 16
47 47 47 47 47 47 47 46 46 47 48 48 48 49 50 50 51 51 51 51 51 52 52 52 52 46 37 30 27 22 23 23 26 31 23 17 21 30 30 28 23 18 20 17 17 17 17
47 46 44 46 47 47 47 47 46 45 48 48 48 48 49 50 51 51 51 51 51 52 52 52 48 44 33 35 26 23 20 28 30 35 29 20 18 26 28 28 25 22 18 19 17 18 17
47 46 45 46 47 47 46 45 48 47 47 48 47 46 48 49 50 50 50 50 49 50 47 44 43 37 38 24 26 28 32 28 31 36 30 28 18 20 26 25 20 19 19 20 19 18 20
45 46 47 47 47 46 45 45 46 48 46 46 46 45 47 49 50 50 47 43 33 38 37 33 27 34 29 26 27 26 37 32 37 39 31 28 16 14 24 25 24 22 19 19 20 20 19
45 45 45 44 44 45 46 46 46 47 45 44 45 45 46 48 49 49 46 38 35 38 35 34 32 30 29 29 25 25 35 35 36 39 38 34 20 11 16 23 23 23 22 21 20 19 17
45 44 44 44 43 43 44 47 47 46 44 44 44 45 46 48 48 46 41 38 37 41 35 31 25 24 26 29 26 23 23 34 31 32 39 35 25 20 17 15 18 20 22 21 19 19 18
45 46 46 45 45 44 43 45 46 44 44 44 43 45 47 48 43 39 37 37 41 45 31 28 25 27 31 27 26 24 22 26 26 32 37 38 37 29 29 20 19 20 20 18 19 19 17
44 44 45 45 45 45 44 44 45 45 44 44 44 44 46 45 39 34 40 39 43 44 23 10 21 28 27 25 25 20 21 23 25 30 37 37 33 33 28 25 24 22 25 23 22 21 22
44 44 45 45 46 44 44 44 44 45 44 44 44 43 45 38 40 40 42 43 44 34 24 11 16 20 18 21 25 21 26 21 17 19 33 31 32 34 26 21 23 23 23 24 24 24 21
42 43 43 44 45 44 44 44 44 45 44 43 43 43 41 37 34 40 44 41 35 25 11 10 15 15 14 13 19 23 26 24 17 17 19 23 25 23 29 27 24 23 23 20 21 22 23
40 41 42 42 43 43 43 44 44 44 43 43 44 44 40 35 36 43 42 36 24 14 12 14 14 14 11 15 20 22 24 23 22 18 19 25 23 21 25 26 23 24 24 22 21 25 20
41 41 42 43 41 42 43 44 44 43 43 43 44 38 37 39 42 42 36 30 17 16 10 11 14 5 3 12 17 19 22 24 23 21 21 24 21 21 25 28 24 25 27 23 25 25 26
41 41 41 41 41 42 43 43 44 43 43 42 38 35 32 41 46 40 34 25 22 17 13 18 11 4 10 12 16 16 27 32 29 23 24 21 21 21 19 24 26 26 26 25 24 21 23
39 41 41 40 40 41 42 42 43 43 42 42 39 31 33 43 43 39 28 25 22 21 16 19 17 10 14 15 17 18 20 32 31 30 32 22 23 23 22 20 23 24 25 28 28 23 25
38 40 40 41 39 40 41 41 42 41 41 39 38 31 37 42 35 33 30 28 27 20 18 16 21 20 20 20 19 19 19 21 27 30 32 35 26 23 25 26 23 23 24 25 28 28 27
40 40 41 40 39 40 40 41 43 43 41 40 35 28 35 44 31 29 26 24 23 21 19 18 19 19 19 18 17 19 20 24 25 25 30 31 27 24 22 26 28 24 25 25 28 34 35
39 40 40 40 39 40 41 41 41 42 41 43 36 31 28 39 32 29 27 24 23 21 19 20 18 19 17 18 20 20 20 22 24 23 38 32 34 29 23 28 34 31 26 30 30 34 35
38 38 39 39 40 40 41 41 41 42 43 42 36 31 29 30 28 28 27 31 24 20 23 20 20 18 17 19 17 18 19 19 22 32 30 35 35 32 30 30 28 28 29 27 28 34 33
38 38 38 39 40 41 40 40 41 42 42 39 32 30 25 23 29 30 27 26 23 26 23 22 19 17 19 17 19 18 22 29 24 28 26 36 32 33 31 30 25 23 28 35 34 24 25
39 38 39 39 39 39 39 40 41 41 42 38 39 34 35 29 28 24 28 24 19 21 25 30 26 25 20 25 32 32 31 35 34 32 29 30 31 33 28 28 26 24 23 28 30 22 22
39 38 39 39 39 39 39 40 42 41 41 39 40 37 32 26 22 22 21 26 28 21 20 19 30 30 34 37 34 31 28 28 28 28 28 27 26 31 29 32 23 22 20 21 23 23 23
38 39 39 39 39 39 39 40 41 41 41 42 41 39 34 28 22 21 21 24 24 28 27 25 27 36 39 38 31 23 25 26 26 26 26 28 27 29 30 27 29 26 20 17 18 20 20
39 39 39 40 40 41 41 40 41 41 41 42 43 43 35 32 26 21 23 25 27 27 27 26 32 39 37 35 30 22 19 19 19 22 26 27 31 29 28 24 23 22 23 23 20 19 24
41 41 42 42 41 41 41 41 41 41 41 42 41 42 38 32 28 26 30 32 33 32 29 28 35 35 37 33 29 25 22 22 23 24 25 27 29 27 27 25 23 18 20 23 21 30 34
42 42 43 43 43 43 42 41 41 41 41 42 39 43 40 35 30 28 26 27 28 33 34 34 35 34 35 30 28 25 27 27 26 28 28 25 27 27 26 23 21 20 23 22 38 39 37
42 43 43 43 45 43 43 41 41 41 41 41 38 41 43 38 29 33 32 30 28 31 36 38 32 35 35 32 30 31 32 34 27 24 35 31 26 26 24 23 32 31 37 38 38 38 37

GFSGBSN_sfc_dewp_063.txt.gz
Dewpoint
45 46 46 45 47 47 45 47 48 48 49 50 50 50 50 50 50 50 51 52 52 51 51 51 51 51 46 38 35 30 53 50 50 43 38 34 26 27 28 28 28 25 23 21 20 19 19
46 47 46 47 46 47 46 47 47 47 48 50 49 49 49 49 49 49 50 51 51 52 51 51 52 50 43 37 34 27 28 27 25 24 33 34 30 29 28 26 25 26 24 21 19 17 16
48 47 47 47 47 48 47 47 46 46 47 49 49 48 48 48 48 49 50 51 50 51 51 51 52 46 42 37 34 31 31 28 30 32 16 20 17 19 30 31 27 25 21 19 17 15 14
47 47 46 46 48 49 48 47 47 47 46 48 48 48 49 49 49 50 50 50 50 50 50 51 52 47 39 40 39 34 29 24 25 28 30 28 22 19 29 31 30 26 24 18 18 18 19
47 47 46 46 48 48 48 48 47 47 46 47 48 47 48 48 49 49 49 50 49 50 51 52 49 46 39 42 36 32 28 22 28 31 31 31 24 19 24 27 27 27 21 20 18 20 18
45 45 46 48 48 47 46 46 48 48 48 46 46 46 47 47 48 48 48 48 48 50 49 45 45 43 41 31 28 27 31 32 27 35 36 31 24 16 21 25 24 25 21 19 19 20 19
44 45 46 45 45 45 46 46 48 48 48 46 45 45 46 47 47 48 46 43 34 36 36 34 37 39 34 30 26 25 34 33 38 40 36 32 23 18 15 24 25 25 23 23 22 22 24
45 44 45 44 44 44 44 44 47 48 46 45 44 44 44 45 47 47 45 41 38 39 35 36 35 33 33 31 27 26 28 35 38 38 40 36 27 26 20 17 26 25 23 23 23 23 24
46 46 45 45 45 45 44 44 45 48 46 45 45 44 44 46 46 45 41 38 41 40 35 33 32 31 31 30 28 27 25 36 34 35 39 36 33 30 28 19 13 22 23 24 23 23 21
45 45 45 46 46 45 45 44 44 44 46 46 46 45 46 47 41 37 36 41 42 43 32 28 27 26 30 29 28 28 25 22 32 30 38 38 37 33 32 33 23 13 18 20 19 19 18
45 45 45 45 46 46 46 45 44 44 44 45 46 45 46 44 39 36 38 39 41 43 21 28 25 30 29 27 27 23 24 24 24 34 38 34 37 36 32 29 29 28 25 24 24 23 21
42 43 44 44 44 45 45 46 45 44 45 45 45 45 45 38 38 37 38 40 42 32 21 14 24 25 26 27 27 26 23 25 25 23 33 32 36 39 37 36 35 32 32 28 26 25 23
41 41 41 42 43 43 44 45 45 44 44 44 45 45 41 38 34 36 36 40 30 23 21 13 17 19 17 16 24 24 25 19 16 15 17 24 30 31 37 35 33 30 31 25 23 23 23
40 40 40 41 43 43 43 43 45 45 44 44 45 45 42 38 37 37 39 34 23 21 23 16 16 16 14 13 20 24 25 24 19 18 19 18 26 25 27 25 32 29 28 27 22 23 22
40 41 42 42 43 43 42 42 44 44 44 44 45 40 38 38 39 39 37 25 22 17 15 17 17 15 11 8 17 21 25 25 25 23 19 24 23 26 24 28 29 30 27 26 27 30 28
38 41 40 42 41 40 41 42 43 43 43 43 38 37 36 37 41 38 34 23 23 22 22 22 16 15 9 14 17 19 27 34 35 31 25 25 22 24 26 27 31 30 28 28 33 27 26
39 40 39 40 41 41 40 41 42 43 43 42 36 33 33 38 39 36 26 25 22 24 23 19 18 19 18 18 19 19 25 33 32 31 32 31 26 23 24 24 26 28 30 36 35 30 25
40 40 40 41 41 41 40 41 41 42 42 39 37 26 37 41 32 33 27 25 28 23 26 24 23 23 21 21 22 21 21 29 29 30 31 33 34 24 19 21 24 28 28 35 34 31 32
39 39 40 40 41 42 40 41 41 42 42 37 34 29 34 41 29 26 28 25 25 24 25 24 21 21 22 20 20 21 22 31 28 28 30 28 31 27 25 25 28 28 25 31 32 33 34
38 39 39 40 40 40 40 40 41 43 42 41 34 27 30 34 32 32 29 27 24 25 23 23 20 21 22 21 21 21 23 27 32 31 37 32 32 32 28 30 36 34 32 26 29 32 32
37 38 39 39 39 40 40 40 41 41 42 40 34 28 29 28 26 28 28 27 25 30 25 23 19 19 21 20 21 23 24 23 26 35 34 36 31 33 33 31 33 34 33 30 30 31 35
38 38 39 40 39 39 40 41 42 40 42 38 30 28 29 27 27 30 32 27 24 23 30 27 27 22 20 20 23 24 31 30 32 32 33 35 30 33 30 31 30 30 31 30 35 35 34
39 39 39 39 39 39 39 40 41 41 41 35 37 34 33 28 27 25 25 27 28 28 25 31 31 32 29 32 34 33 33 34 34 32 32 34 33 31 28 29 32 27 28 34 36 37 35
39 39 39 39 39 39 39 39 41 41 41 36 36 35 30 23 23 22 21 21 25 31 30 29 29 31 35 39 36 34 33 31 35 34 33 30 29 31 28 27 25 29 32 32 32 35 34
38 39 39 39 39 39 40 40 41 40 41 40 39 36 33 22 24 22 22 21 25 32 33 32 32 38 41 38 30 26 25 26 27 27 28 30 29 26 26 27 28 27 29 23 26 26 27
39 39 39 39 40 41 41 40 40 40 40 40 40 41 36 29 22 26 25 23 29 29 32 34 39 39 36 33 28 23 20 22 21 24 26 28 30 27 27 24 23 29 29 27 26 29 35
39 39 39 40 41 41 41 41 41 40 40 40 38 40 37 29 29 26 28 30 34 32 32 33 34 34 35 30 23 24 22 23 21 23 25 25 26 25 25 24 29 30 28 27 24 33 37
41 42 42 42 42 42 42 42 42 42 41 40 37 41 37 33 31 31 31 30 30 32 31 34 32 34 32 25 24 23 23 26 25 27 31 28 25 26 25 23 21 28 32 30 38 39 37
42 42 42 43 43 43 43 43 43 42 42 41 36 40 40 35 32 35 34 34 33 29 33 35 33 34 34 31 28 29 25 29 29 26 36 30 32 28 26 25 35 39 39 41 40 37 37

GFSGBSN_sfc_dewp_066.txt.gz
Dewpoint
46 46 46 45 46 46 46 46 47 47 47 49 50 49 49 48 48 48 49 50 50 49 50 51 51 51 44 39 36 37 49 42 49 47 42 37 32 24 23 25 30 31 31 30 27 24 22
46 46 47 47 47 47 47 47 47 47 46 47 49 49 48 48 47 47 48 49 50 50 49 50 50 50 42 33 36 35 29 32 31 39 30 36 28 22 28 30 29 29 30 29 26 24 21
47 48 47 48 47 48 48 47 47 47 47 46 48 48 48 47 46 46 47 49 49 50 49 49 50 48 41 36 38 37 37 34 28 31 29 25 23 19 22 29 32 29 25 24 24 21 19
46 48 47 47 48 49 48 48 47 46 47 47 47 47 47 47 47 47 48 48 48 49 49 50 51 46 39 40 41 40 38 33 28 24 28 29 28 21 21 30 29 28 26 22 22 20 19
45 46 47 48 48 48 48 48 48 46 46 47 47 47 47 47 47 48 48 48 48 49 51 51 48 44 39 46 41 40 38 31 23 31 33 30 29 21 19 26 26 28 24 22 21 21 20
45 45 45 46 46 46 46 47 48 48 47 47 46 45 46 47 47 47 47 47 48 49 48 48 46 43 43 35 32 27 28 27 26 36 36 33 28 17 18 24 24 25 24 21 20 21 22
45 44 45 45 45 44 44 45 46 48 47 46 45 44 45 46 46 46 44 43 38 36 37 34 39 40 39 37 33 26 26 32 40 39 34 33 26 24 16 20 26 24 24 24 24 25 25
45 46 45 45 44 44 44 44 45 46 47 46 45 45 45 46 47 46 45 40 39 39 35 35 36 35 37 35 31 31 28 31 38 35 39 36 30 28 23 19 19 24 24 25 25 24 24
44 45 45 45 46 46 46 45 45 45 45 46 46 45 45 46 46 42 36 37 39 42 34 33 33 32 33 33 30 30 26 35 35 37 38 34 34 35 28 26 21 19 18 24 24 24 23
45 45 46 45 45 46 46 46 45 44 44 46 46 46 46 47 38 37 36 38 37 42 32 28 31 31 31 31 30 30 26 33 34 33 38 38 38 37 35 30 28 29 18 17 21 22 24
42 42 43 45 44 45 45 46 45 44 44 45 47 46 46 44 39 37 37 36 36 42 13 24 27 31 31 28 25 24 26 23 23 35 36 32 36 37 34 32 31 28 34 32 30 27 25
41 41 41 41 43 43 44 44 45 45 45 44 45 45 45 39 37 38 36 36 41 30 15 22 26 26 29 27 28 23 23 25 24 26 36 32 39 37 35 35 34 37 33 32 28 27 24
40 40 40 40 41 43 43 43 43 44 44 44 44 45 43 40 34 35 37 39 26 22 18 18 22 25 26 26 27 26 22 20 19 15 17 21 29 36 38 35 35 35 33 26 25 24 24
38 40 41 41 42 42 43 42 43 44 44 44 44 45 43 40 39 37 36 33 21 19 21 21 20 18 16 16 21 26 24 19 20 16 19 17 20 25 36 35 33 32 35 29 25 26 25
38 38 40 41 42 42 42 42 42 43 43 44 44 39 39 39 39 38 34 20 19 19 20 22 21 16 14 13 16 24 25 25 23 18 17 21 24 26 31 32 33 33 35 34 31 30 30
37 38 39 40 40 41 41 40 41 42 43 43 37 35 36 36 39 38 31 21 22 22 22 21 19 21 18 19 19 18 24 34 35 34 25 24 22 24 27 30 31 31 36 33 35 27 25
37 38 39 39 39 40 41 40 40 42 43 42 34 30 34 37 40 36 24 22 22 20 20 22 23 21 21 21 19 21 30 35 33 35 33 33 27 23 27 26 29 31 36 36 35 33 29
37 37 40 40 40 41 41 41 40 41 42 39 33 24 34 42 30 32 26 25 27 22 23 23 26 25 23 21 21 20 22 29 28 30 31 32 33 30 26 24 26 33 35 35 33 30 32
38 38 40 39 40 40 40 41 40 41 41 35 34 29 33 38 26 24 27 26 26 24 23 21 24 24 24 22 18 23 25 33 30 30 29 27 29 27 24 25 25 28 30 35 36 36 34
37 36 37 38 39 40 40 41 40 40 42 39 35 24 26 32 31 29 29 28 25 27 26 25 25 26 22 22 24 21 21 31 33 31 37 32 30 30 28 32 34 34 33 33 36 34 32
36 37 38 39 39 39 39 40 40 41 41 40 33 25 27 25 29 30 29 28 25 25 29 29 25 24 21 20 22 22 27 29 31 37 35 32 26 33 33 32 30 30 35 35 33 34 32
37 39 39 39 39 40 40 40 40 40 40 38 30 23 29 28 29 25 27 26 26 29 25 25 28 31 31 26 23 24 30 29 33 33 33 36 28 32 30 29 26 28 35 35 37 38 32
39 39 40 40 40 40 39 39 39 41 40 37 37 33 30 24 24 22 24 24 25 23 31 29 31 31 30 31 35 35 34 34 32 31 31 32 31 28 25 29 27 28 30 31 33 38 38
39 39 39 40 39 39 39 39 41 40 41 35 33 32 29 21 22 21 20 22 21 22 28 31 34 33 34 38 37 34 34 33 33 33 33 30 28 29 26 27 19 28 27 28 36 37 38
39 39 39 39 38 39 39 40 40 41 41 40 37 34 33 22 27 24 24 23 24 30 28 31 33 35 38 35 29 26 24 25 26 30 32 32 28 25 23 24 24 21 29 30 33 34 37
39 40 40 40 40 40 41 41 41 40 40 38 39 40 36 26 23 22 26 28 26 27 29 33 37 40 38 32 30 22 19 22 21 24 27 30 29 25 25 22 19 28 30 31 31 34 37
38 38 38 39 40 41 41 41 40 40 40 38 36 39 37 30 29 26 23 28 33 30 29 34 33 35 33 25 24 22 22 25 20 23 23 26 26 24 23 22 25 30 31 33 26 34 37
38 39 40 40 41 42 42 42 42 42 40 39 36 39 36 33 31 31 32 30 32 33 28 32 31 33 31 22 23 23 22 24 24 25 25 25 25 24 25 23 19 33 33 29 37 40 38
38 41 42 42 42 43 43 43 43 42 42 41 35 40 40 35 29 35 33 33 31 30 31 34 31 32 35 29 29 29 23 23 26 24 36 30 32 29 26 25 37 36 36 38 39 39 38

GFSGBSN_sfc_dewp_069.txt.gz
Dewpoint
45 46 46 45 46 47 47 46 47 47 47 46 47 49 49 49 48 47 48 48 47 47 47 48 49 49 46 37 30 33 48 41 39 51 48 42 35 28 19 22 30 32 32 32 31 30 26
46 46 47 47 47 47 47 47 47 47 47 47 47 48 48 48 47 46 47 48 49 48 47 48 49 49 44 35 29 35 36 34 30 45 40 39 35 26 24 27 27 29 30 30 31 32 29
46 47 48 48 46 46 47 48 48 47 46 48 48 48 47 47 46 45 46 48 48 49 48 48 49 47 42 38 38 38 39 36 31 30 30 23 25 21 21 24 31 29 27 27 26 25 23
46 48 47 47 47 48 48 48 48 47 47 46 47 47 47 47 47 47 47 47 48 49 50 50 50 48 41 41 41 40 40 35 34 33 29 30 29 22 18 23 28 28 28 25 25 24 23
46 44 45 46 48 48 48 48 47 48 48 46 47 47 47 47 47 47 47 47 48 49 52 51 48 45 38 45 42 39 38 33 28 29 31 30 30 24 18 21 25 28 25 24 24 23 21
45 44 44 45 46 46 45 46 47 46 48 47 46 46 46 47 47 46 46 48 49 49 49 49 46 42 41 34 36 33 30 34 26 36 35 33 27 21 17 23 21 25 25 24 22 23 25
45 46 44 44 45 44 44 43 44 45 46 47 46 46 46 47 46 46 45 43 39 38 39 34 37 39 37 38 34 30 29 32 40 37 31 35 28 25 21 21 25 27 25 24 25 26 25
45 45 45 45 46 45 45 45 46 45 45 45 46 46 46 46 46 46 39 38 35 36 36 39 37 36 36 37 34 31 31 30 36 32 39 35 30 30 29 24 19 19 20 24 25 26 25
42 43 45 45 44 45 46 45 46 45 45 45 45 46 46 46 46 38 35 37 36 36 36 31 30 31 32 34 31 29 28 31 35 35 37 32 33 36 31 27 25 23 18 23 24 25 26
44 45 45 45 44 44 45 46 45 44 44 44 45 46 47 46 35 37 36 36 34 37 31 26 31 33 33 33 30 31 28 36 35 33 37 37 38 37 36 33 30 25 24 26 18 18 21
41 41 41 41 43 43 44 44 45 44 44 44 45 45 46 44 38 34 36 35 36 41 13 17 30 33 31 28 26 27 27 25 33 33 36 31 36 38 35 34 33 28 36 34 32 28 26
40 40 39 39 40 42 43 43 43 44 44 44 44 44 45 39 37 36 36 37 40 28 10 19 27 28 28 28 27 23 24 25 23 27 35 33 38 36 35 35 33 34 35 33 32 28 24
40 38 39 40 41 40 42 42 42 43 43 44 44 44 42 41 34 37 37 36 24 21 16 20 21 24 28 28 26 22 21 20 19 17 17 20 25 35 38 35 35 35 35 28 24 23 21
37 36 39 41 41 42 42 42 42 42 43 43 44 44 42 40 39 37 35 31 17 11 20 23 22 21 24 25 26 25 21 19 20 17 16 16 13 30 37 32 31 31 37 30 23 24 25
36 37 37 40 39 42 40 40 40 42 43 43 43 38 37 38 39 37 33 22 12 17 21 21 21 20 18 20 21 26 23 21 21 17 15 19 21 26 36 35 36 36 33 38 32 33 28
34 36 38 39 39 39 40 41 40 40 42 42 36 35 34 37 39 37 29 18 22 22 20 18 20 23 19 20 19 19 24 30 34 24 23 24 21 24 28 34 37 37 39 33 35 27 24
35 36 35 39 40 40 39 41 41 40 41 42 33 29 31 37 38 34 22 20 22 21 22 21 24 23 21 22 20 21 26 35 37 34 27 30 26 22 27 30 32 37 37 36 36 34 28
36 36 36 39 39 40 40 40 41 40 41 38 31 20 31 39 30 28 22 23 25 23 25 24 25 25 24 23 22 19 22 29 30 31 31 31 33 30 29 27 33 34 35 37 32 31 33
35 35 38 39 39 39 39 40 40 40 40 34 30 28 33 34 14 26 26 25 26 24 23 23 23 25 26 23 23 23 23 31 30 30 26 27 28 27 24 26 32 33 37 37 37 37 31
36 37 36 36 37 38 39 40 40 40 40 37 33 21 23 30 30 26 24 26 23 30 29 30 26 25 25 24 24 24 24 28 33 31 37 33 30 28 24 30 34 34 34 36 37 33 32
38 36 36 37 38 39 39 39 39 39 39 38 33 25 26 14 26 26 25 26 27 26 28 28 26 28 30 27 23 24 27 28 33 37 34 29 24 31 31 31 30 31 32 35 36 36 34
36 36 38 39 39 39 39 39 40 40 39 37 29 25 27 27 28 26 26 26 22 24 21 28 26 30 30 30 28 28 28 28 29 34 33 35 27 30 27 31 27 23 26 32 35 36 37
37 38 39 39 40 40 40 39 39 39 40 36 37 35 28 24 23 22 20 20 24 23 24 24 26 31 30 30 33 36 35 34 33 30 31 32 30 28 23 27 26 24 30 28 35 36 35
39 40 39 39 39 39 39 40 40 40 39 37 34 33 28 19 22 22 20 21 22 24 24 26 28 32 34 36 36 36 34 34 33 32 32 30 28 28 24 25 15 21 21 31 31 36 39
38 38 38 38 38 39 39 39 40 40 40 36 37 35 30 21 23 24 26 23 24 26 27 27 31 35 39 37 31 26 25 25 26 31 32 31 28 24 20 21 21 21 30 30 30 31 37
38 39 40 40 40 40 41 40 41 40 40 36 36 40 35 25 22 23 22 24 26 26 27 30 35 36 39 32 28 21 19 20 21 23 30 32 29 24 25 20 15 22 30 32 34 30 39
39 37 37 37 38 40 41 40 40 40 40 37 34 37 37 29 29 27 24 23 30 29 26 30 30 34 37 28 25 23 22 24 18 21 23 26 26 25 23 21 23 27 36 35 28 33 38
37 38 38 39 40 40 40 41 41 41 41 39 35 38 34 31 30 31 30 27 30 30 24 28 28 30 30 24 26 25 22 24 23 23 24 24 24 23 25 22 18 34 36 30 37 39 38
39 38 38 40 41 41 41 42 41 42 41 41 35 39 38 33 30 35 33 32 31 30 30 31 31 31 32 31 29 29 24 23 25 21 34 21 31 28 26 25 35 35 34 38 40 40 40

GFSGBSN_sfc_dewp_072.txt.gz
Dewpoint
46 45 45 46 46 47 47 47 47 47 47 47 47 48 48 48 48 47 47 48 46 46 47 48 48 49 47 38 31 28 44 42 50 50 46 43 36 29 19 19 25 30 32 32 31 30 29
46 47 47 47 47 47 47 47 47 47 47 47 48 48 48 48 47 46 45 47 48 47 47 48 49 48 44 32 33 34 37 37 31 45 43 41 36 32 27 24 23 26 27 28 30 31 31
47 47 47 47 46 46 47 47 48 48 47 47 47 47 47 47 46 45 46 47 48 48 48 50 50 47 43 36 38 39 39 37 32 31 27 26 31 19 19 18 26 30 28 28 28 29 30
46 46 47 47 47 48 47 47 48 47 48 48 47 47 47 47 47 47 48 47 48 50 51 52 50 46 41 43 42 41 40 38 38 35 30 30 29 25 21 20 25 27 28 26 27 26 25
47 45 44 45 45 46 46 46 46 46 47 47 47 47 47 48 48 48 47 47 48 50 51 51 46 45 38 45 43 42 39 32 28 27 29 26 29 25 23 18 21 27 24 25 25 25 23
46 44 43 44 45 45 45 44 44 45 46 46 47 46 46 48 48 47 47 47 47 49 49 48 46 42 38 33 38 35 32 35 27 34 33 32 27 21 18 21 17 22 25 25 24 24 24
45 45 45 44 44 44 44 44 45 45 45 45 45 45 45 46 46 47 41 40 35 35 36 34 33 39 34 36 36 30 31 30 39 36 26 33 28 24 22 21 20 24 24 24 25 26 26
45 45 45 44 44 45 47 46 46 45 45 45 45 45 45 46 46 43 38 36 34 34 32 36 37 37 37 36 34 34 32 27 35 30 38 34 29 30 29 26 21 20 18 17 22 26 26
43 43 45 45 43 44 45 46 45 45 45 45 45 45 46 45 43 37 36 34 34 34 35 34 31 30 31 34 32 30 30 29 34 32 36 30 30 36 33 31 28 26 23 22 20 23 24
45 45 44 45 44 44 44 44 45 44 45 45 45 45 46 46 36 37 35 35 35 36 28 23 29 32 33 33 30 32 30 33 35 31 36 35 36 36 36 35 32 27 27 25 22 22 18
43 42 41 40 41 42 43 43 43 43 44 44 44 45 45 42 36 32 32 36 35 40 -8 12 30 34 33 31 27 28 29 30 33 34 36 30 35 36 36 34 34 31 33 34 32 30 26
42 41 39 38 39 39 42 42 42 42 42 43 44 44 44 40 37 36 37 36 39 15 -10 15 28 28 28 28 26 24 25 26 29 31 35 34 36 37 35 35 35 34 35 33 32 30 26
41 39 38 39 40 41 40 41 42 42 42 42 43 44 42 41 31 37 36 35 12 4 11 19 22 22 22 27 27 22 23 21 19 19 18 19 21 34 36 33 35 35 34 27 25 25 24
39 37 37 40 40 42 42 41 41 41 42 43 43 43 40 39 38 37 34 24 1 7 17 23 20 20 21 23 24 25 20 20 21 17 16 14 13 28 36 30 30 34 32 27 22 22 24
38 35 36 36 39 41 40 40 40 40 42 43 41 36 35 36 38 36 28 12 1 18 20 19 17 21 20 21 22 23 22 20 20 18 17 16 20 25 35 35 32 33 34 37 33 35 29
34 35 36 36 39 38 38 39 40 40 41 42 35 32 32 36 38 34 22 16 19 21 21 18 16 23 21 22 20 19 23 28 28 21 20 21 20 23 32 36 38 36 39 33 33 26 23
36 34 34 35 38 39 39 39 40 40 41 41 32 27 30 38 37 28 14 19 21 21 23 22 22 21 22 20 22 21 21 33 36 33 24 25 26 23 33 30 32 34 34 36 36 32 29
39 33 34 35 38 38 39 39 40 40 41 37 29 18 29 38 24 25 18 24 23 23 23 22 25 24 23 23 25 22 24 26 36 35 35 33 34 29 29 29 33 36 36 35 32 31 34
40 34 35 37 38 38 38 39 39 39 40 33 28 27 33 31 9 18 27 27 25 25 24 24 23 23 23 23 23 28 28 31 33 33 32 31 32 27 22 28 33 34 36 36 36 35 33
41 35 35 36 35 37 37 38 39 39 41 35 28 20 22 29 26 21 21 23 24 30 28 29 27 28 26 24 23 27 28 31 34 34 39 32 29 24 19 24 32 30 30 32 35 32 32
35 37 38 36 36 38 38 38 38 38 40 35 31 24 25 14 23 26 25 24 23 25 31 28 28 29 29 26 24 25 26 32 33 35 33 28 24 30 29 29 30 30 29 29 31 34 33
35 37 36 36 39 38 38 38 39 39 40 34 30 26 28 27 26 24 23 23 23 24 22 20 27 28 26 27 26 29 30 30 32 32 34 35 29 29 25 29 25 23 19 23 27 34 34
37 36 36 39 39 39 39 39 39 40 38 34 37 36 29 24 23 20 20 20 21 23 25 25 25 25 26 28 32 31 34 36 35 32 31 30 29 26 21 25 24 16 25 21 27 36 36
35 36 39 40 39 39 39 39 41 40 38 34 35 36 26 19 22 20 21 21 23 24 23 23 25 29 32 35 36 34 34 36 35 34 33 30 27 27 24 23 13 15 20 28 34 34 37
38 39 39 39 39 39 39 39 39 39 40 34 36 36 27 17 23 21 23 25 23 24 26 26 29 33 34 35 32 27 26 27 26 30 30 31 28 24 19 20 19 20 29 31 31 28 35
38 38 38 38 39 40 39 39 39 40 39 36 34 39 35 24 20 23 22 22 23 23 25 27 32 34 38 33 30 22 19 19 20 23 32 30 28 24 25 19 13 19 30 34 34 27 38
39 39 40 39 38 39 39 40 41 41 40 36 34 36 34 27 28 27 24 23 27 26 23 27 29 32 33 30 27 23 21 24 17 19 25 27 27 25 23 20 22 26 34 36 25 27 36
39 40 38 38 38 38 39 39 39 40 40 39 36 36 32 29 26 30 30 27 28 27 18 23 25 28 27 26 26 25 22 24 23 23 24 23 23 23 25 23 18 34 34 28 35 37 35
40 38 38 39 39 39 39 40 40 41 41 41 36 39 36 33 27 34 34 32 30 29 27 28 26 30 31 28 28 29 26 25 26 21 32 21 27 26 26 25 34 34 33 33 39 39 36

GFSGBSN_sfc_dewp_075.txt.gz
Dewpoint
48 47 46 46 46 46 47 47 47 47 47 47 47 47 47 47 47 47 47 47 46 46 47 48 48 48 47 38 32 27 42 41 52 48 43 41 30 26 22 20 23 27 26 28 29 30 29
47 46 47 47 47 47 46 46 47 47 47 47 47 47 47 47 47 46 46 48 48 47 48 49 49 48 43 34 32 33 38 37 34 47 43 42 37 34 28 24 23 24 26 25 27 27 28
47 48 48 49 48 46 46 47 47 47 48 48 48 48 48 47 47 46 46 48 48 48 49 51 50 46 42 37 39 40 41 38 31 40 38 38 36 23 24 18 23 26 25 27 28 28 27
48 47 48 48 47 47 47 47 47 47 47 47 47 47 47 47 47 47 48 48 48 48 52 52 50 44 39 43 43 41 40 39 39 36 32 30 28 25 23 23 20 23 26 22 27 28 28
47 48 46 45 45 45 45 45 45 45 46 45 46 46 46 47 48 48 47 48 48 50 51 50 46 43 37 44 42 41 41 33 33 33 32 27 29 26 21 19 19 24 20 24 25 26 26
49 47 45 44 45 45 43 43 43 44 45 45 45 45 45 45 47 47 47 46 47 50 49 48 44 40 37 33 38 35 36 36 27 31 33 32 28 24 20 20 15 18 22 25 25 26 26
48 46 45 44 44 44 43 43 45 45 45 45 45 45 45 45 46 47 42 37 32 31 34 29 32 38 29 31 36 32 32 30 38 33 24 31 25 22 23 24 23 20 20 19 19 23 23
47 46 45 46 45 45 46 46 46 45 44 44 45 45 45 45 45 42 39 33 31 32 31 32 34 34 34 32 30 31 32 27 35 30 36 34 28 28 27 25 22 22 21 21 22 21 20
46 45 46 45 45 44 44 45 45 44 44 44 44 45 45 45 41 37 36 32 34 34 32 32 33 31 31 35 33 31 30 27 32 30 34 27 28 34 30 31 30 29 28 28 26 26 26
46 46 45 45 45 44 43 44 44 43 44 43 44 44 45 43 34 36 34 34 36 36 28 15 27 32 33 33 30 33 32 29 34 26 33 34 34 33 33 32 34 29 30 29 28 26 21
45 43 43 42 42 42 43 43 42 42 42 43 43 44 45 42 36 31 30 37 37 39 -15 5 30 34 33 29 28 27 31 30 30 33 34 27 35 36 33 30 34 30 33 32 31 30 29
44 43 41 40 39 39 42 42 41 42 42 42 43 44 44 40 38 36 37 37 38 8 -18 7 25 22 20 28 26 24 26 26 31 34 36 33 35 36 34 34 34 34 33 32 31 30 26
42 41 40 40 40 41 40 41 42 41 42 42 43 43 41 41 32 38 38 33 3 -12 7 17 21 17 20 21 26 23 24 23 21 21 21 20 22 33 35 31 34 31 30 25 23 25 21
41 40 40 41 41 42 42 41 41 40 41 42 42 42 39 39 38 38 34 14 -17 2 13 21 18 17 20 22 21 23 22 22 22 17 16 14 15 24 34 28 26 31 29 26 20 22 23
40 38 37 39 40 41 41 40 40 40 41 42 40 36 35 36 39 36 23 12 -5 20 18 17 13 21 21 22 22 20 23 21 21 20 18 16 16 23 34 34 29 32 31 33 34 30 28
37 38 37 37 40 38 38 39 39 40 41 42 35 32 32 38 39 32 22 11 15 20 21 21 13 23 20 12 19 16 19 30 31 22 21 21 18 23 35 36 37 34 38 34 34 23 22
37 36 34 36 38 39 39 39 39 40 40 39 32 27 34 38 36 29 17 17 19 21 24 20 21 18 16 6 13 11 20 30 31 35 25 23 26 24 34 32 31 34 32 36 35 31 25
38 36 34 34 38 39 39 39 40 40 40 36 31 21 30 36 26 26 22 23 23 22 20 19 23 21 20 20 24 22 22 26 32 34 32 36 34 25 24 29 33 33 32 36 31 29 33
40 36 36 36 38 38 38 39 40 40 38 34 28 27 33 33 18 22 24 26 26 24 23 23 23 23 24 20 19 22 28 31 34 33 35 34 34 28 27 31 33 32 34 38 37 35 31
42 37 36 37 36 38 38 37 39 40 40 35 28 19 23 31 24 23 22 21 20 29 29 32 27 26 26 23 24 20 27 31 34 35 38 35 29 30 21 21 28 28 27 29 35 29 30
39 38 36 37 35 37 37 38 38 39 40 35 29 23 25 21 26 25 25 23 22 24 28 27 30 28 26 25 23 22 23 26 32 34 37 35 26 30 27 28 29 25 24 22 22 30 30
35 36 38 37 36 38 38 38 38 39 40 34 29 26 28 27 25 23 22 17 19 21 19 19 25 23 22 26 25 26 28 27 30 34 35 38 28 30 23 29 23 20 18 21 25 24 28
37 36 38 36 38 39 38 38 39 40 37 34 36 34 30 24 23 20 19 18 19 22 23 23 24 22 21 29 32 34 33 34 34 34 33 32 31 26 18 24 21 13 19 18 24 29 32
39 37 36 37 39 39 39 39 39 40 37 34 34 34 29 21 22 19 20 20 21 22 23 22 26 26 28 33 32 33 34 33 34 34 35 33 27 27 22 22 9 12 20 24 31 33 32
38 36 36 39 40 39 39 39 39 41 40 36 35 34 27 20 21 20 20 21 23 23 24 25 28 29 34 33 29 26 27 29 30 31 31 34 29 25 20 18 17 16 28 28 31 28 37
36 38 39 40 39 39 40 39 39 40 40 37 36 39 34 25 21 23 21 21 21 23 24 26 29 34 34 32 30 22 18 16 20 26 32 30 29 26 25 18 12 16 30 31 34 20 36
36 37 38 38 39 39 40 40 40 40 40 37 36 37 35 28 28 27 25 23 26 27 25 24 27 29 32 27 26 25 20 24 17 19 27 28 28 25 24 21 21 29 33 35 15 23 35
37 38 39 39 40 39 38 38 39 40 40 38 36 37 33 29 26 30 30 27 29 27 23 25 25 27 28 24 26 27 25 25 24 23 26 23 24 25 23 21 17 33 34 27 34 36 34
37 39 40 40 39 39 39 39 40 40 40 39 35 38 37 33 27 33 33 32 30 29 28 29 27 27 30 28 26 27 27 28 26 20 31 25 28 27 25 24 34 33 33 33 38 37 35

GFSGBSN_sfc_dewp_078.txt.gz
Dewpoint
50 49 48 48 47 47 47 47 46 46 46 47 47 48 47 48 48 47 47 47 47 46 47 48 49 49 45 34 25 24 40 41 41 39 35 30 25 22 18 16 17 22 19 17 20 22 20
50 49 48 48 48 48 48 46 46 47 47 47 48 48 48 48 47 47 46 46 47 47 48 49 49 49 42 26 28 29 31 30 31 37 34 38 31 29 27 25 22 21 23 22 23 23 24
50 49 48 49 48 49 47 47 46 47 47 46 46 47 47 47 46 46 46 46 48 48 49 50 51 46 40 31 33 33 34 28 30 30 29 34 35 29 27 24 24 23 21 22 23 23 24
50 48 49 49 49 48 48 47 46 45 45 45 45 45 45 46 46 46 46 47 48 48 50 51 51 45 36 36 38 39 35 33 36 32 30 28 32 29 25 23 22 21 21 18 18 26 26
49 49 49 49 48 46 46 45 44 45 44 44 45 45 45 45 47 47 47 47 47 50 51 51 46 43 31 41 38 38 39 31 32 35 32 27 29 26 25 21 18 19 13 16 19 22 23
50 49 48 47 46 47 46 44 44 44 44 44 45 45 45 45 46 47 47 45 47 51 48 46 43 40 36 30 36 35 36 34 28 28 28 27 25 23 23 21 12 12 15 16 19 22 23
51 50 47 46 47 46 44 44 45 45 44 44 44 44 45 45 45 45 42 36 27 31 30 20 22 31 25 24 29 29 31 30 28 25 21 23 19 17 16 20 18 18 18 17 16 18 19
51 49 47 46 46 47 47 47 46 44 44 44 44 44 45 45 44 42 35 31 31 32 27 27 29 30 30 31 25 24 32 28 30 27 27 29 23 18 18 20 21 20 18 18 21 23 24
49 48 46 47 46 45 45 46 45 44 44 44 44 44 45 45 39 39 30 30 32 35 30 24 29 30 30 34 29 28 27 28 27 25 28 23 19 30 26 25 23 24 25 25 25 27 28
48 47 46 46 46 45 44 44 44 43 42 42 43 44 45 44 34 34 30 32 34 39 21 5 28 31 32 32 30 31 28 24 25 23 23 25 25 26 27 25 28 24 27 28 27 27 18
48 46 46 45 45 44 44 43 43 41 41 42 43 44 44 42 35 26 29 35 38 40 -9 12 29 33 28 29 28 27 29 23 20 23 26 21 27 31 26 25 29 24 30 28 28 28 28
46 45 43 42 42 43 43 43 42 41 41 42 42 43 43 38 38 32 37 38 42 15 -16 6 22 16 12 20 25 26 27 28 29 27 29 25 28 32 30 32 29 29 27 24 26 28 24
45 43 41 41 40 40 41 42 42 41 41 42 42 43 39 38 30 38 39 37 6 -9 -4 11 17 12 7 17 21 24 25 25 21 22 22 20 23 29 32 28 29 29 23 14 19 23 19
43 42 41 41 42 43 43 42 40 39 40 41 41 40 38 37 39 41 37 13 -10 -4 6 15 14 10 5 16 13 20 21 21 24 22 18 14 15 19 28 27 19 24 22 19 15 16 16
42 41 40 41 42 42 41 41 39 39 41 41 38 37 38 40 42 40 21 13 -1 14 14 14 10 7 4 17 14 16 17 18 21 23 19 18 17 22 29 29 26 30 29 29 28 27 25
41 39 38 39 41 39 40 40 39 39 40 41 33 34 35 41 43 32 18 9 12 17 17 13 5 13 11 14 9 13 16 30 31 30 24 21 18 21 30 32 31 32 33 31 32 25 19
39 38 39 40 40 39 39 40 40 40 40 38 34 26 36 40 39 26 21 10 13 14 18 12 11 11 6 7 7 11 12 28 31 32 32 22 23 24 32 30 25 31 31 33 36 31 23
39 37 37 37 40 40 40 40 40 40 40 34 34 30 34 38 27 28 19 18 22 18 20 18 17 16 12 11 7 9 9 17 33 33 33 28 29 23 21 24 28 27 28 31 29 27 34
39 37 37 37 39 39 40 40 40 40 38 35 29 24 34 36 27 22 21 20 23 21 22 20 19 19 19 16 14 12 12 14 32 36 36 37 31 24 22 29 30 28 30 37 34 36 30
41 38 37 38 38 39 39 39 39 39 39 37 32 29 27 29 25 25 23 16 18 26 28 25 25 27 24 21 22 16 16 21 30 28 36 37 31 27 17 28 28 29 28 29 30 30 27
43 39 37 38 37 38 38 38 39 39 39 36 34 28 27 26 24 21 23 20 18 16 24 22 30 23 26 21 21 20 18 16 20 31 35 35 32 28 28 29 29 21 20 20 24 25 25
41 41 38 38 36 37 38 39 39 39 38 34 33 29 26 23 23 21 20 15 14 18 18 16 24 20 18 20 24 27 27 25 24 31 32 35 32 28 26 27 25 21 19 15 18 23 22
37 38 39 38 37 39 39 39 39 40 37 33 36 34 30 24 20 19 17 15 17 18 19 21 20 21 21 24 30 28 29 28 30 29 33 33 32 27 21 24 19 16 16 17 19 21 28
38 37 38 37 37 39 39 39 40 40 37 34 36 34 31 21 16 16 16 16 17 19 21 21 21 26 25 25 29 30 29 28 28 29 33 33 31 27 20 18 9 19 19 22 24 25 31
39 39 37 37 38 40 40 40 40 41 39 36 36 34 31 26 17 15 17 18 19 22 21 21 21 25 28 31 28 20 21 25 25 27 29 35 35 27 19 16 12 10 26 25 26 25 34
39 38 36 37 40 41 40 40 40 41 40 37 36 37 34 29 21 18 19 18 19 19 21 22 25 29 33 31 28 21 19 14 12 19 28 30 31 31 23 14 7 25 28 29 28 21 34
39 37 37 39 41 41 40 40 40 40 41 39 37 37 34 32 25 26 23 22 23 25 23 24 27 26 31 28 25 25 23 18 11 14 24 26 27 25 21 18 17 28 30 32 18 28 36
37 38 39 40 40 41 40 41 40 41 41 39 36 39 32 30 25 27 27 25 26 27 25 26 26 28 27 25 24 25 27 25 22 20 21 21 22 24 22 20 16 33 32 28 35 37 35
38 39 40 40 41 41 39 39 39 40 41 40 35 38 37 33 27 33 31 30 28 27 28 27 28 30 30 28 26 27 28 28 25 20 27 27 30 28 26 28 34 34 34 34 36 36 36

GFSGBSN_sfc_dewp_084.txt.gz
Dewpoint
57 56 56 55 53 52 51 50 49 49 48 48 48 48 49 49 49 48 48 48 47 47 48 48 49 50 46 35 31 41 52 47 44 39 35 30 23 17 13 12 13 14 14 15 18 17 18
57 56 56 55 53 51 50 49 49 50 49 48 48 48 47 48 47 46 46 47 47 47 48 49 49 50 44 28 22 25 23 24 27 33 31 27 24 22 19 17 16 15 14 13 12 14 14
57 56 56 54 53 51 49 50 50 48 48 48 47 46 46 46 46 46 46 46 47 48 48 50 50 47 39 30 23 25 23 19 16 22 27 27 25 26 25 23 23 21 19 19 18 17 15
57 56 55 53 52 50 50 50 48 48 49 48 45 45 45 46 46 46 46 47 47 48 50 52 52 46 34 28 29 24 25 24 24 19 21 23 25 25 27 26 24 19 17 13 13 11 11
57 56 54 53 51 51 51 50 49 49 48 46 45 45 45 46 46 47 47 47 47 48 52 52 49 44 31 38 29 29 31 26 23 21 21 18 20 21 23 24 19 18 15 14 12 12 12
57 55 54 52 50 50 51 50 49 47 46 45 44 44 45 45 47 47 48 47 47 51 49 46 41 39 37 25 28 30 31 30 26 25 25 22 19 18 19 17 14 14 13 13 11 10 14
56 54 52 50 50 51 50 49 48 47 46 45 44 44 44 44 45 47 44 38 41 44 44 37 29 33 20 17 22 18 19 28 26 25 23 23 19 16 17 17 17 17 17 15 14 12 12
54 52 51 52 51 49 48 47 47 47 46 44 44 44 43 44 45 46 42 32 27 30 21 26 17 22 26 29 25 21 17 24 24 23 21 19 19 19 17 17 15 15 14 13 13 14 16
53 51 51 49 48 47 47 47 47 47 45 44 42 42 44 45 45 41 30 27 28 33 28 20 24 28 28 30 26 23 17 17 22 20 22 20 19 20 22 20 19 17 15 14 14 14 17
51 49 49 49 49 47 48 48 47 45 43 41 41 42 43 44 40 30 33 28 32 40 29 17 22 27 30 30 29 25 25 20 20 19 18 19 19 18 19 19 18 18 16 16 19 19 19
49 50 50 49 49 48 48 46 45 43 41 41 41 42 43 42 40 31 30 33 37 42 15 17 25 28 20 22 19 27 25 21 18 19 20 18 16 18 19 19 16 15 19 21 22 24 24
48 48 49 49 48 47 46 44 42 41 41 41 41 42 42 39 41 35 35 37 40 34 13 10 22 19 7 12 14 22 23 25 24 19 19 17 17 16 15 19 21 23 23 21 23 23 22
48 48 48 46 45 45 45 44 43 41 40 40 41 41 38 35 35 38 40 38 32 20 3 7 11 11 4 0 -4 1 12 22 21 19 20 18 20 19 21 22 23 24 24 17 15 14 17
46 46 45 44 43 42 41 41 41 39 39 41 41 40 40 34 39 42 39 32 17 -4 5 9 5 4 2 -3 -4 -2 6 6 8 7 11 10 10 13 22 24 21 21 23 21 12 17 17
45 45 44 43 42 41 42 43 40 38 40 41 40 38 39 41 41 41 34 24 15 13 10 8 1 -3 -4 -4 5 12 11 6 5 5 6 17 12 20 20 21 22 21 20 21 22 21 19
44 43 42 41 43 43 42 41 39 39 40 40 36 34 32 39 41 40 30 18 11 10 8 5 1 -4 1 5 6 6 7 6 17 25 29 25 23 15 19 23 24 22 24 28 32 21 16
42 40 40 42 42 41 40 39 39 39 40 40 37 30 35 37 41 35 29 15 8 11 12 9 5 4 5 5 5 4 1 2 5 22 21 25 27 28 26 28 24 22 25 26 28 27 23
41 40 40 41 41 39 39 39 39 40 40 38 35 34 35 39 32 26 20 14 17 12 15 13 14 11 9 10 11 10 8 9 10 11 8 24 34 28 23 21 23 22 21 26 28 23 27
41 39 41 41 40 40 40 39 39 40 39 36 28 26 30 38 34 23 17 13 15 14 15 15 14 15 17 15 12 11 12 15 15 13 18 24 26 21 18 18 18 22 23 30 33 33 28
39 38 37 40 41 40 39 39 39 39 40 36 31 33 26 28 23 26 20 16 16 19 19 19 17 19 18 16 16 13 13 16 21 23 31 30 22 22 22 23 27 29 32 30 27 31 27
39 39 38 39 40 39 38 38 39 39 40 37 34 33 29 30 23 22 22 16 15 16 20 19 23 22 22 16 14 13 15 17 18 24 22 24 20 20 23 21 20 26 32 29 28 33 27
41 39 39 38 41 39 38 38 38 39 39 36 35 30 26 24 23 21 19 15 11 14 12 18 20 17 15 15 14 18 17 18 19 20 22 31 23 20 18 19 19 24 24 29 31 35 33
42 41 40 39 38 39 38 38 38 39 38 32 31 32 31 24 21 19 20 15 14 15 15 15 15 16 16 16 18 21 21 22 21 21 24 25 28 24 18 17 20 25 22 21 24 29 24
43 42 39 39 37 37 38 39 38 39 39 36 31 28 30 24 17 15 15 14 13 14 16 16 17 19 18 22 23 22 21 20 21 21 23 26 25 25 23 22 16 20 19 19 20 31 35
42 41 41 40 39 39 39 39 39 40 39 36 30 31 28 29 15 14 14 15 15 15 17 17 17 19 24 24 23 19 19 18 18 21 22 24 25 25 23 21 25 19 19 20 21 34 32
41 40 39 40 40 41 40 40 40 40 40 37 34 35 31 34 19 14 14 14 16 18 20 20 19 25 26 29 26 19 15 17 18 26 20 19 25 27 22 20 22 33 30 25 23 32 33
41 41 40 40 41 42 41 41 40 40 40 38 35 39 32 36 23 20 25 27 21 23 20 23 24 23 28 28 24 24 20 20 19 19 16 21 25 23 24 24 30 31 31 27 19 30 33
41 41 42 41 41 42 41 41 40 40 40 38 38 38 34 32 27 24 23 22 24 23 24 26 24 28 26 25 26 23 24 25 28 23 19 20 23 24 25 26 23 31 30 29 34 35 33
41 41 41 41 42 41 42 41 41 40 41 40 38 37 35 30 31 33 31 30 28 27 25 25 25 27 31 28 26 27 24 31 29 24 29 28 30 30 28 28 33 31 32 32 32 32 32

GFSGBSN_sfc_dewp_087.txt.gz
Dewpoint
59 59 57 57 57 56 55 54 53 52 51 51 49 48 49 49 49 49 49 49 47 48 48 48 49 50 47 39 39 45 54 52 47 37 30 29 30 23 16 16 17 15 15 16 17 17 17
59 58 57 56 57 56 55 53 52 52 51 51 50 49 48 48 48 47 46 47 47 47 48 48 49 49 46 34 26 41 39 36 37 38 35 35 31 26 19 16 14 14 17 17 19 19 19
60 59 58 56 57 56 54 53 52 52 51 50 50 49 47 46 46 46 46 46 47 47 48 48 50 47 42 34 31 30 27 20 19 21 27 29 28 26 26 26 26 24 20 19 18 17 17
60 59 58 57 56 55 54 53 51 51 50 49 49 47 46 46 46 46 46 47 47 48 48 50 52 47 41 35 35 33 27 26 23 22 20 21 22 23 25 26 25 23 22 17 17 15 14
60 59 58 57 56 54 53 52 51 51 50 50 48 46 46 47 47 47 47 48 47 48 49 53 50 48 38 41 33 30 25 22 24 24 23 18 20 21 21 20 22 23 19 17 17 18 15
60 59 58 57 55 53 52 50 51 50 50 49 47 46 46 46 47 47 48 48 46 48 50 46 46 43 41 29 28 30 29 31 30 29 22 22 19 18 18 18 18 19 16 15 15 16 16
60 59 58 56 54 53 50 50 50 50 49 48 47 46 45 45 45 47 45 39 41 43 44 40 40 33 30 23 25 22 21 24 29 27 24 24 19 17 17 18 18 17 15 15 16 17 15
59 59 57 55 53 51 51 51 50 48 48 48 46 45 44 44 45 46 43 37 27 30 26 35 41 34 22 26 26 26 23 17 27 24 24 22 20 21 20 19 19 18 16 15 14 15 15
58 57 55 53 51 51 51 50 48 48 48 46 43 42 43 44 44 42 36 28 32 37 29 26 23 30 23 30 28 23 17 18 22 22 23 22 21 22 20 19 19 19 18 17 15 16 16
54 53 52 52 51 49 49 48 47 48 46 43 41 41 43 44 42 38 34 31 36 41 30 25 17 25 29 30 30 28 25 22 19 19 21 21 22 21 20 22 21 18 20 19 16 17 20
51 50 50 49 49 49 49 48 48 46 42 40 40 42 43 42 39 36 34 34 37 42 20 18 20 28 28 28 23 27 25 24 21 20 20 21 20 19 19 19 21 19 21 20 21 20 22
49 49 49 49 49 48 48 47 45 43 41 40 41 42 42 40 41 38 38 38 40 34 19 19 26 22 19 18 16 26 25 28 26 22 19 18 19 17 17 18 20 23 25 26 25 22 19
48 49 49 48 48 47 46 45 44 42 40 39 40 41 40 36 37 39 41 39 33 25 12 11 17 12 9 7 10 7 21 24 22 20 21 21 19 19 17 17 22 23 24 22 17 18 17
48 47 46 46 46 45 45 44 44 42 39 39 40 41 40 37 40 42 41 33 24 14 9 9 6 7 6 5 2 3 8 8 11 12 8 6 9 12 20 19 21 23 24 23 18 18 19
46 45 44 44 44 43 42 43 41 40 38 41 41 38 40 43 40 41 36 26 19 13 9 6 2 1 1 0 6 11 14 13 13 27 25 25 20 25 22 24 24 25 22 24 23 23 21
45 45 44 44 44 43 44 42 40 39 40 39 37 38 38 39 39 40 32 24 15 9 8 6 0 2 4 8 7 6 7 8 7 20 16 23 23 26 25 26 25 23 26 24 30 24 21
44 44 43 44 44 42 42 41 40 40 40 40 37 34 37 36 39 37 29 22 10 12 14 11 9 7 8 7 9 9 7 10 13 13 12 16 28 26 26 26 24 24 25 27 29 29 24
41 40 41 42 40 40 40 39 39 39 40 38 36 32 36 38 33 35 26 17 19 12 15 14 16 12 12 15 14 12 10 13 24 21 18 28 29 21 20 22 22 26 28 28 25 24 28
40 40 40 42 40 41 41 40 39 39 39 36 33 29 33 38 29 27 19 15 16 14 17 15 15 20 20 17 15 16 17 20 24 23 27 26 24 21 14 18 27 29 32 33 35 34 30
40 40 40 41 41 40 40 39 38 38 39 37 35 29 26 32 27 28 22 19 17 20 21 19 17 23 21 19 18 18 16 20 25 23 33 29 24 22 18 19 22 28 28 27 32 31 32
39 39 39 41 40 39 38 38 38 39 40 37 36 32 30 27 25 25 23 20 20 20 22 21 25 24 24 21 17 16 20 20 21 26 25 27 21 21 20 18 18 19 26 24 27 31 31
40 39 40 40 40 39 38 38 38 39 40 36 32 32 29 26 24 23 23 19 13 15 14 21 23 21 18 18 18 18 21 21 22 23 25 29 22 25 20 21 21 16 17 20 25 32 33
40 40 40 40 40 39 38 38 39 39 39 35 32 33 32 26 21 22 20 19 17 19 20 16 18 19 19 21 24 23 22 23 23 22 21 22 22 24 16 20 22 20 22 21 27 32 32
42 40 40 39 38 37 38 38 39 40 39 37 35 34 31 24 20 20 18 17 16 17 19 18 19 20 25 25 25 24 23 21 21 20 21 21 23 25 20 21 15 18 25 28 34 35 36
44 43 40 39 38 38 39 39 40 40 40 37 37 34 31 26 23 17 18 17 17 19 19 18 21 26 26 24 24 23 20 21 22 22 24 23 25 23 20 19 22 23 34 33 31 33 32
43 43 41 40 40 41 40 39 40 40 40 38 37 39 34 29 24 17 18 17 17 21 23 26 28 26 26 27 23 20 17 18 21 24 27 28 28 23 24 19 16 30 34 33 34 30 31
41 42 41 41 41 42 41 40 39 40 40 38 37 37 35 29 27 27 25 26 25 25 21 26 26 27 29 21 14 21 21 22 20 25 21 23 25 22 23 20 26 32 31 31 25 28 30
42 41 41 42 42 42 42 41 40 40 41 39 38 37 35 30 30 30 28 23 25 26 22 25 24 26 25 20 25 18 16 24 25 31 27 23 24 24 25 22 21 30 30 26 34 32 29
42 42 42 42 42 42 43 42 41 40 41 40 36 36 35 31 30 32 32 32 30 29 27 27 24 27 28 22 23 25 24 28 28 24 32 28 31 27 27 26 33 31 31 33 32 32 30

GFSGBSN_sfc_dewp_090.txt.gz
Dewpoint
61 60 59 59 58 57 57 56 55 54 54 53 52 51 49 49 50 49 50 49 48 47 47 48 48 49 48 42 40 40 55 55 45 33 28 29 30 28 21 16 19 21 23 23 22 21 20
60 60 59 59 58 57 57 57 55 54 53 52 52 51 50 49 48 48 47 48 47 47 47 48 48 48 45 30 20 34 48 45 44 38 36 32 33 32 25 18 15 16 14 16 18 18 20
59 60 60 59 58 57 57 56 55 54 53 53 52 51 50 48 47 47 47 47 48 47 47 48 48 46 43 32 29 37 36 29 32 39 35 34 34 25 25 24 27 26 23 23 21 18 17
57 58 59 59 58 57 56 56 55 54 53 52 51 51 50 47 46 47 47 47 47 47 48 48 49 46 39 38 38 37 35 28 23 21 22 21 21 21 23 24 22 22 24 20 21 19 18
57 58 58 59 58 57 56 56 55 53 52 52 51 50 47 47 47 47 46 47 47 47 47 49 50 46 40 46 40 39 33 26 24 25 25 22 23 20 20 19 19 22 20 20 19 19 18
57 58 57 58 59 57 57 55 54 52 52 51 50 48 47 47 46 47 48 46 46 46 47 48 47 44 41 32 33 30 30 27 24 28 25 21 19 16 18 17 15 19 20 18 16 16 17
58 57 58 58 59 57 56 55 53 52 51 50 48 46 48 46 45 46 45 40 40 42 43 39 38 37 34 27 25 22 24 25 29 28 20 24 19 17 16 18 18 19 18 17 17 16 17
57 58 58 58 58 57 55 54 51 51 50 48 47 47 46 45 44 45 43 37 31 30 27 39 43 40 37 36 26 27 21 17 21 25 25 24 19 21 19 19 19 18 17 16 17 16 15
57 57 58 58 58 56 54 52 52 50 48 47 48 46 43 43 44 42 39 35 36 36 27 22 27 37 38 34 27 27 23 19 24 25 25 23 23 23 21 20 19 19 18 18 18 19 18
55 57 57 57 55 54 52 52 49 48 48 48 44 42 42 43 39 39 36 32 37 39 22 20 24 25 31 31 29 29 18 17 18 17 21 22 22 22 22 21 19 17 22 21 20 19 15
50 51 53 53 53 52 50 49 49 49 46 43 42 41 41 41 39 37 35 35 36 41 17 22 17 27 30 29 29 27 26 24 20 20 21 21 20 19 18 19 20 19 23 23 21 21 21
49 49 50 49 49 49 49 49 47 44 43 42 41 40 41 39 40 39 38 39 40 33 18 20 26 26 28 29 20 26 26 27 24 21 20 19 20 19 18 18 19 24 25 25 25 24 20
49 49 49 49 48 48 47 46 45 44 41 39 39 39 38 37 37 39 41 38 32 27 19 20 24 24 24 18 18 25 24 23 22 20 20 20 20 21 20 17 20 20 23 21 19 18 18
48 48 48 48 47 47 45 44 43 41 39 39 39 39 39 37 39 41 40 34 27 12 12 10 8 8 8 7 7 7 14 13 27 25 18 12 12 15 25 20 17 21 23 22 18 17 14
46 46 46 45 45 45 45 43 41 40 39 39 39 39 37 42 40 40 36 28 19 14 8 7 5 3 5 7 8 13 11 11 16 15 23 19 22 23 27 26 22 24 23 23 23 22 22
45 45 44 44 44 43 43 41 39 38 40 40 38 39 39 41 39 39 33 27 10 11 9 7 5 10 7 8 9 8 9 11 14 14 14 19 14 27 24 25 26 26 29 21 25 19 19
44 44 44 44 44 43 43 40 39 39 39 40 37 34 37 39 40 37 26 21 13 13 13 13 11 10 10 12 12 11 11 18 17 17 18 22 25 20 19 23 19 20 23 29 28 27 21
44 43 44 44 43 42 41 40 40 39 38 37 35 30 36 38 34 35 24 19 21 14 18 16 18 18 18 18 15 14 14 20 25 25 22 28 26 22 16 19 20 21 29 34 29 26 27
41 41 41 41 40 41 40 39 40 39 39 36 33 29 32 39 26 24 21 18 20 17 19 18 18 21 21 18 15 18 17 23 24 22 24 22 21 17 7 14 26 25 24 26 31 33 27
40 40 41 41 41 41 40 39 38 38 39 36 34 25 26 31 30 26 23 20 18 23 21 21 24 25 22 19 19 18 19 23 26 25 33 28 22 18 14 16 21 19 17 19 27 27 28
41 41 41 41 41 40 39 38 38 38 39 37 33 29 30 25 26 24 24 23 21 21 23 23 23 24 22 20 18 17 21 22 23 26 26 25 20 22 22 22 21 21 20 18 18 22 27
40 40 41 41 40 39 38 38 38 39 40 36 31 30 31 24 25 23 24 19 18 16 21 21 21 22 18 18 19 19 22 22 22 24 24 26 20 20 13 17 18 18 22 20 19 18 23
40 41 40 41 40 38 38 39 39 40 39 34 33 33 31 25 21 22 19 19 19 20 21 19 20 18 18 23 22 22 23 23 22 21 21 21 19 20 12 19 20 17 23 20 18 26 32
41 41 40 40 39 38 39 39 40 40 39 36 35 33 30 21 20 20 19 20 20 19 18 19 19 19 25 25 24 24 23 22 22 22 22 21 21 22 19 20 13 22 33 30 33 34 36
43 41 40 39 37 38 39 39 40 40 41 36 37 33 29 24 23 18 20 19 17 20 18 18 25 25 25 25 24 23 21 20 21 24 23 22 23 22 18 19 19 20 33 31 28 30 33
43 42 41 40 39 40 40 40 40 41 41 37 36 37 34 26 23 24 19 19 19 19 23 27 29 29 27 25 22 20 16 18 19 22 29 27 25 23 23 18 13 26 29 33 35 26 33
43 43 41 41 41 41 41 40 41 41 40 37 36 37 34 25 29 26 25 23 24 23 21 25 25 25 27 18 14 18 19 24 22 21 24 24 26 22 21 20 24 29 32 34 25 25 28
43 43 43 42 42 42 41 40 41 40 41 39 36 36 33 28 30 31 31 26 25 25 21 23 22 24 24 20 21 15 14 22 25 28 28 25 25 24 25 22 19 29 28 25 31 32 27
42 42 43 42 43 43 42 41 40 41 40 41 34 37 35 29 29 31 31 31 29 28 26 25 23 27 26 20 21 21 21 24 25 24 32 24 27 25 25 23 32 32 31 34 33 31 29

GFSGBSN_sfc_dewp_093.txt.gz
Dewpoint
57 58 59 61 60 59 59 58 57 56 55 55 55 54 53 50 50 50 51 50 48 48 47 47 47 48 46 37 33 32 55 55 48 31 26 30 30 25 18 17 20 21 21 23 25 25 24
54 55 57 58 60 60 59 58 57 56 55 55 54 54 52 50 50 50 49 48 48 47 47 46 47 47 43 23 17 28 47 49 38 32 33 29 31 31 27 25 17 17 16 17 18 18 17
54 54 54 56 58 59 59 58 57 57 55 55 54 53 52 51 50 48 47 47 48 47 46 47 47 44 41 31 28 29 42 37 37 40 35 35 35 32 26 22 26 26 23 24 23 21 18
53 54 55 55 56 58 58 58 57 57 56 55 54 53 52 51 49 47 47 47 47 47 46 47 48 46 37 39 39 37 31 32 31 30 36 29 24 23 22 23 21 21 23 21 22 21 20
55 55 56 55 56 57 58 58 57 57 56 55 53 52 51 50 48 47 48 46 46 46 46 47 49 44 36 44 43 42 35 31 29 25 23 22 22 18 21 19 19 20 19 20 20 21 19
55 56 57 55 56 56 57 58 57 57 55 54 53 52 51 49 47 46 46 46 44 46 45 47 46 39 40 33 36 33 37 32 25 27 26 22 19 16 18 17 17 17 17 21 19 18 18
56 57 58 57 57 57 58 58 57 55 54 53 52 51 48 47 47 46 46 40 41 41 41 38 37 36 32 34 26 23 28 28 28 26 21 21 17 16 14 17 18 19 19 17 17 18 17
54 56 58 57 58 57 57 58 57 54 53 53 51 49 47 47 46 46 44 35 34 31 29 39 40 37 34 37 37 27 22 23 22 25 25 23 19 20 21 19 18 17 16 16 17 18 18
52 55 57 58 58 57 57 57 55 53 52 51 49 48 47 46 44 42 39 33 36 34 22 22 35 38 37 40 37 29 21 19 19 19 25 22 23 25 22 21 19 19 17 17 18 19 20
50 52 55 58 57 57 57 55 53 52 51 49 48 48 45 44 37 38 35 31 35 36 8 13 23 32 37 36 29 28 23 19 19 18 24 24 24 23 23 21 21 19 21 21 21 19 17
48 49 50 52 54 54 53 53 51 50 49 49 46 44 44 40 38 37 35 34 42 40 7 16 24 29 35 28 29 29 20 22 16 18 20 19 21 22 21 21 22 21 24 22 23 20 22
48 47 48 49 50 50 50 50 49 48 46 45 44 43 42 39 39 37 38 39 40 30 11 20 26 26 27 28 26 26 24 25 24 20 21 19 20 19 18 19 20 22 24 24 24 23 19
48 47 48 48 48 48 48 47 47 46 45 44 43 42 39 37 37 39 40 39 28 22 17 24 25 28 28 27 27 25 24 23 22 20 20 21 20 20 21 19 21 19 19 17 16 18 17
48 48 47 47 47 46 46 46 45 44 43 41 41 40 39 36 37 40 39 35 24 13 11 11 21 25 26 10 12 15 22 22 13 25 20 16 15 22 26 25 22 20 20 19 15 18 13
47 47 47 46 46 45 45 44 42 43 42 40 39 39 37 41 39 40 36 27 21 14 9 9 8 12 11 9 8 11 11 14 14 12 21 17 20 19 25 20 25 23 21 22 21 21 20
45 45 45 45 45 45 44 42 41 39 39 41 38 39 39 42 40 40 34 28 16 16 16 17 10 12 7 8 9 9 12 16 14 14 18 18 10 23 17 24 23 20 26 22 26 22 18
45 44 44 44 44 44 42 40 40 40 40 41 37 34 38 40 41 38 28 27 15 17 17 16 12 10 12 11 13 12 15 20 18 18 24 23 19 18 12 19 17 16 20 27 30 27 22
44 44 44 44 43 44 41 41 40 39 39 37 35 29 36 39 34 34 29 22 25 18 21 18 22 20 18 18 15 16 16 20 24 24 20 25 23 21 14 18 20 20 30 30 26 24 25
44 44 44 44 43 41 41 40 40 39 38 36 32 28 34 38 28 26 21 21 23 20 21 20 19 22 22 19 16 18 19 25 24 24 21 20 19 13 3 14 21 21 20 21 24 28 24
43 43 42 40 41 41 40 40 39 39 39 35 33 23 26 33 32 27 23 21 20 24 22 24 24 24 21 20 19 17 20 24 26 28 32 26 21 16 11 12 20 20 20 21 22 19 22
41 41 41 41 42 41 40 39 39 38 38 37 33 27 28 25 25 25 24 24 21 21 23 24 24 24 23 20 18 19 21 22 23 25 27 24 19 21 21 21 18 16 17 17 19 19 19
42 42 43 42 41 39 39 38 38 38 40 36 31 28 29 25 25 22 23 22 21 19 23 21 22 21 19 19 18 18 21 20 19 22 22 25 19 19 16 13 12 15 18 19 19 19 19
40 41 42 41 40 38 38 38 39 40 40 33 33 32 29 25 22 20 20 21 20 21 22 20 20 18 19 22 23 22 22 22 20 22 21 21 19 18 11 17 19 15 21 28 20 19 23
41 41 42 41 40 39 39 38 40 41 38 35 34 33 28 22 20 21 21 20 19 19 18 18 19 20 24 24 25 24 23 22 23 21 22 21 19 18 16 17 11 19 31 32 30 32 34
42 41 41 40 39 39 39 39 40 42 41 36 36 32 29 24 21 19 20 20 19 20 17 25 25 25 25 26 23 21 20 20 22 24 23 21 21 16 13 16 17 20 30 29 28 29 33
43 41 41 39 39 40 40 40 41 41 41 36 35 37 32 26 23 26 21 19 19 19 24 25 28 28 27 24 21 19 15 17 19 24 28 24 23 21 23 11 10 22 28 30 34 24 30
43 43 41 40 41 40 40 40 40 42 41 36 34 36 30 26 29 27 23 23 25 23 23 24 25 25 26 17 12 12 18 23 21 18 25 24 24 19 20 18 21 27 30 33 23 23 28
43 43 43 42 41 41 40 40 40 41 42 35 34 36 31 28 29 30 30 25 25 25 20 22 21 22 22 19 18 13 11 22 21 22 26 25 22 22 23 21 18 29 28 23 29 30 28
42 43 43 43 43 42 41 40 40 41 43 38 34 38 35 30 29 31 30 30 27 26 25 26 22 26 24 19 19 20 19 21 20 19 30 23 26 23 23 22 31 31 29 31 32 30 28

GFSGBSN_sfc_dewp_096.txt.gz
Dewpoint
53 53 54 55 56 57 60 60 59 58 57 57 56 56 55 54 53 52 52 51 49 48 47 46 47 48 45 26 16 24 54 54 46 36 29 24 25 18 12 15 23 24 25 25 24 24 24
54 54 54 54 54 55 56 58 59 58 57 57 56 56 55 55 53 51 51 50 49 48 47 46 46 47 42 5 13 31 34 47 37 28 26 29 28 27 26 25 19 19 18 17 19 18 19
52 54 54 54 54 54 55 56 57 58 57 57 56 55 55 54 52 51 49 48 48 48 47 46 47 45 41 21 28 30 39 44 40 32 33 30 30 31 28 21 25 24 24 23 23 23 22
53 53 54 55 55 54 55 54 56 58 58 57 56 55 54 53 52 51 48 48 47 47 46 46 48 44 36 38 38 38 36 28 30 37 38 35 34 26 21 21 20 20 23 20 22 22 21
52 53 54 55 54 55 54 54 54 57 58 57 56 55 54 52 51 49 47 47 46 44 45 46 48 45 35 42 42 42 36 26 26 30 28 26 21 19 20 18 17 20 18 19 19 21 20
51 52 54 55 55 57 56 55 55 56 57 57 56 55 53 51 50 48 46 45 44 46 46 45 47 36 36 26 38 40 39 31 26 27 24 22 20 16 18 17 14 18 18 20 18 18 18
51 51 53 55 55 57 57 57 56 56 57 57 55 54 52 50 48 47 45 42 40 40 43 36 35 29 29 36 37 25 36 32 29 26 21 21 18 15 16 18 19 19 18 18 17 18 17
50 50 53 55 56 58 57 57 56 56 56 56 54 53 51 49 48 47 44 36 37 40 34 37 37 36 33 36 36 35 29 27 27 25 23 21 18 19 18 17 17 16 15 15 17 18 18
49 50 52 55 55 58 57 57 56 56 56 55 53 52 50 48 48 45 40 34 33 37 30 27 29 35 33 35 32 36 24 23 22 24 23 21 21 23 22 21 19 19 17 17 17 19 20
48 50 52 53 57 57 57 57 56 56 55 53 52 50 49 47 39 38 37 36 34 35 22 14 23 33 34 37 34 32 24 20 21 22 24 23 24 23 23 22 21 19 21 21 20 20 17
48 49 50 51 52 53 54 55 55 54 53 50 50 48 46 41 40 37 39 34 31 37 13 12 24 32 35 31 25 31 23 20 17 19 23 22 21 23 22 22 23 21 24 23 22 20 21
47 48 48 49 49 49 50 50 50 49 49 48 46 46 44 42 41 39 37 40 41 24 11 16 24 28 33 30 28 25 21 23 21 18 20 20 21 19 20 21 23 22 23 24 24 23 17
47 47 47 47 47 47 47 47 47 47 46 46 45 44 41 42 36 40 40 39 21 15 18 22 24 28 25 24 27 25 21 23 21 18 17 20 19 20 23 19 22 21 18 15 14 17 15
48 48 47 47 47 47 47 47 46 46 46 45 44 42 40 40 39 41 41 32 14 9 7 12 20 26 26 25 19 22 22 16 11 23 20 16 14 22 25 25 23 22 19 17 13 17 15
47 47 47 46 46 46 45 45 45 44 43 43 42 38 35 37 37 41 35 24 15 16 14 15 27 23 12 9 12 11 14 14 12 13 20 21 21 22 19 18 24 23 19 24 19 22 19
47 46 46 46 45 45 44 43 43 43 42 41 38 37 38 41 41 39 32 23 20 20 20 22 27 22 9 11 10 11 13 18 14 19 20 17 8 22 17 22 20 18 25 24 25 20 16
46 46 45 45 45 45 44 42 41 41 41 41 37 34 39 41 40 36 27 25 19 21 21 21 18 17 14 13 14 14 17 20 19 21 23 21 16 15 14 17 13 12 20 28 28 27 23
46 45 45 45 44 44 42 41 40 40 41 38 34 28 38 39 32 32 28 27 27 23 24 24 26 24 21 19 17 18 19 21 25 23 20 24 24 16 13 19 23 21 30 28 23 22 24
45 45 44 44 44 44 42 41 40 40 40 35 30 32 35 37 27 29 27 23 25 23 24 24 23 24 24 20 16 19 21 25 28 24 20 19 19 8 4 13 16 20 20 23 24 24 19
45 44 45 45 43 42 41 41 40 40 40 35 30 22 28 34 33 28 22 23 22 26 24 25 24 24 22 20 21 19 21 23 26 29 31 25 20 11 2 8 21 19 20 21 21 10 14
44 44 42 41 41 41 40 40 39 39 40 36 33 23 26 23 27 25 24 25 21 20 24 24 24 25 23 18 19 19 21 20 22 26 26 23 17 21 19 21 18 18 13 11 15 16 15
43 43 42 41 41 41 40 39 39 39 40 35 29 29 28 25 26 24 24 22 21 20 23 21 22 21 19 18 18 18 19 19 18 22 21 24 20 18 16 17 14 12 14 16 18 18 18
42 42 42 42 41 39 39 39 39 40 41 34 33 32 29 24 21 20 20 22 20 21 21 21 21 20 20 21 22 20 21 21 18 20 20 20 18 16 10 17 14 6 15 26 27 28 28
42 42 42 41 40 39 39 39 39 41 41 34 34 32 28 22 20 21 22 20 20 20 17 20 21 21 23 24 24 24 22 22 22 21 21 21 18 17 14 15 1 19 30 30 28 30 29
42 42 42 41 40 39 39 39 39 41 40 35 36 31 28 23 21 20 21 20 20 24 24 25 26 26 25 26 22 19 19 20 22 23 22 22 21 15 9 14 14 20 27 26 26 25 30
42 42 41 40 40 40 40 39 40 42 40 35 35 36 30 26 23 26 20 20 19 22 24 25 28 28 26 24 21 17 15 19 18 23 25 23 23 21 20 10 7 20 26 29 32 22 28
43 42 41 40 40 40 40 40 41 42 39 34 34 35 30 26 28 26 21 23 24 24 23 24 25 25 25 17 13 11 17 22 19 18 23 22 23 18 18 15 18 25 28 30 22 20 27
43 43 42 41 41 40 40 39 41 43 40 34 34 36 31 28 28 30 28 25 25 24 21 22 20 21 21 18 17 12 10 19 19 15 25 23 21 21 21 18 13 27 25 21 26 29 28
43 43 42 43 41 41 40 40 42 42 41 36 33 37 35 30 28 31 30 30 26 25 25 26 21 25 23 19 19 20 19 16 17 17 26 18 21 21 23 20 29 29 28 30 30 28 27

GFSGBSN_sfc_dewp_099.txt.gz
Dewpoint
52 52 53 53 54 55 55 55 55 56 59 59 58 58 57 57 56 55 53 52 50 48 47 47 46 48 44 25 8 39 55 52 50 44 29 26 23 18 13 14 22 24 24 26 25 24 24
51 51 51 53 54 54 55 55 55 55 55 58 58 57 57 57 56 55 53 51 49 47 47 46 46 47 42 11 10 31 35 51 39 37 30 25 22 21 16 20 19 21 23 22 21 20 19
50 51 52 53 53 54 55 55 55 53 54 55 57 57 57 56 56 54 52 50 48 47 46 46 45 44 41 25 22 31 37 44 37 29 26 27 30 31 30 24 25 23 22 23 23 24 23
50 51 53 53 53 53 54 55 55 55 55 55 56 57 56 56 55 53 51 49 47 46 44 44 46 45 35 37 38 37 32 28 33 33 35 35 32 31 24 21 20 20 22 19 22 22 22
49 50 53 52 52 52 53 54 55 55 55 55 55 57 56 55 54 52 50 47 46 45 44 47 45 44 33 41 38 39 36 25 24 30 31 29 27 23 20 17 17 21 14 20 20 22 21
48 49 53 52 52 53 53 54 55 55 55 55 55 57 56 54 53 50 48 46 44 44 46 44 45 39 37 31 32 39 41 30 21 28 27 25 22 19 18 16 12 15 17 20 18 17 19
47 48 51 50 52 53 54 55 54 56 55 55 55 57 55 53 51 48 46 44 41 40 42 38 37 34 30 34 37 32 37 30 25 24 23 23 20 18 17 19 18 20 18 17 18 18 15
49 50 50 50 52 54 54 54 56 56 56 55 56 56 54 52 50 48 42 39 38 40 36 38 37 37 37 36 33 30 35 29 27 16 19 19 19 20 19 18 17 17 16 14 16 18 18
50 50 50 50 52 55 55 57 57 56 56 56 56 54 53 51 49 44 37 37 41 39 32 32 36 36 36 37 35 31 31 28 24 25 23 18 20 22 18 17 16 17 15 18 18 19 21
49 49 50 50 53 53 55 57 56 56 56 55 55 53 51 49 43 42 39 42 43 36 27 28 28 29 34 34 34 36 32 27 23 25 24 24 24 21 20 19 20 18 21 21 20 19 16
48 48 50 50 51 51 52 53 56 56 55 54 52 51 49 44 39 37 40 38 38 35 20 20 20 29 33 32 27 33 35 22 30 22 27 26 24 24 23 21 23 21 24 22 22 21 20
49 48 48 49 49 49 49 49 50 50 50 49 47 45 43 42 42 43 44 44 43 25 19 15 26 30 30 30 27 28 32 25 23 21 23 22 21 23 23 24 23 23 23 24 24 23 17
49 48 47 48 47 47 47 47 47 46 46 46 45 45 43 43 39 44 44 41 25 20 20 18 23 32 30 27 23 25 22 22 18 16 17 18 18 19 21 18 22 21 20 13 13 17 11
49 49 48 47 47 48 48 48 47 47 46 46 45 44 43 42 44 45 42 34 19 15 7 13 15 27 24 23 23 22 22 17 13 22 18 15 15 21 21 23 21 20 18 12 9 12 13
48 48 48 48 47 47 46 46 46 46 46 44 42 37 39 40 44 44 37 24 21 21 19 18 30 24 12 14 14 15 16 12 12 14 19 20 20 24 19 19 23 22 20 24 19 21 16
48 48 47 47 46 46 45 45 44 44 44 42 38 36 36 41 43 41 32 24 21 19 20 22 26 31 17 13 13 14 16 17 15 22 20 17 12 21 17 22 14 23 26 26 27 15 9
47 47 47 46 46 45 44 44 44 43 42 41 37 32 38 42 44 36 26 25 23 22 21 24 24 27 18 14 18 18 17 21 24 23 23 22 16 14 15 14 10 6 14 28 27 27 20
47 47 46 46 46 45 44 43 42 42 41 37 35 29 39 42 32 33 27 23 27 22 25 26 31 26 20 19 17 21 19 21 27 24 19 23 20 9 13 20 21 24 27 26 19 20 24
47 46 46 45 45 45 43 41 41 42 41 35 33 35 38 38 26 26 27 21 24 23 25 30 27 26 22 19 16 19 19 24 27 23 20 20 15 3 8 17 18 18 19 20 19 22 17
48 46 45 44 44 44 43 41 41 41 41 36 28 27 32 34 33 30 25 23 22 24 26 27 28 27 22 18 21 20 18 21 27 30 31 25 18 6 0 12 18 15 18 18 19 21 16
48 46 45 45 44 44 42 42 41 41 41 36 33 26 28 25 27 28 25 24 21 20 24 24 24 23 22 16 17 18 18 19 22 26 25 24 16 18 16 19 19 18 15 14 11 11 12
46 45 46 45 42 41 41 41 40 40 41 35 30 30 29 26 27 27 26 24 19 20 21 21 22 19 19 17 18 17 18 17 16 21 21 24 21 18 15 17 17 14 13 11 11 13 15
45 44 44 43 42 41 40 40 40 40 41 35 33 33 29 24 24 23 22 23 21 21 20 22 22 20 19 20 21 22 22 23 21 19 20 19 20 14 5 14 11 6 12 12 21 25 25
44 43 43 42 42 40 40 39 40 41 41 38 34 33 29 23 21 20 21 21 20 19 19 20 21 22 22 24 26 25 24 22 21 21 21 21 18 17 10 13 -2 23 27 28 25 27 28
43 43 43 42 40 40 39 40 40 42 43 36 37 33 29 26 22 21 23 24 25 26 25 26 26 27 27 26 21 17 19 20 22 24 22 21 20 17 14 13 12 23 26 26 25 24 27
43 43 42 41 40 40 40 40 41 42 42 36 36 37 31 29 23 24 21 23 21 23 24 24 28 29 28 26 23 16 14 18 18 23 23 21 22 19 19 13 10 21 24 26 30 21 26
43 42 42 41 40 40 40 40 42 41 42 35 35 37 32 30 29 26 21 23 26 25 23 24 25 24 27 23 20 18 18 21 18 19 22 21 21 18 18 17 19 25 26 28 20 20 26
43 42 42 41 40 40 41 40 42 42 40 35 36 37 32 30 29 30 27 26 26 25 23 24 23 24 24 20 19 19 20 23 22 20 24 22 20 19 19 18 15 26 23 20 26 29 27
42 42 42 42 41 41 40 41 42 41 39 36 34 37 35 31 29 32 32 30 28 26 26 26 22 26 26 22 22 23 23 24 21 20 27 22 24 23 23 22 29 28 27 29 29 26 26

GFSGBSN_sfc_dewp_102.txt.gz
Dewpoint
52 52 52 52 53 54 53 54 55 55 55 56 57 58 59 59 58 57 55 54 53 50 47 46 46 47 38 28 29 33 55 51 41 39 27 26 22 20 15 12 14 19 13 13 15 15 15
51 51 52 51 53 53 53 54 54 55 55 55 54 55 58 58 58 57 55 53 52 49 47 46 45 46 37 35 33 16 33 42 37 34 26 22 19 17 13 11 11 15 17 17 21 21 21
50 52 51 52 53 54 53 53 53 54 55 55 54 53 55 57 57 57 55 53 50 48 47 45 45 41 39 38 33 25 31 27 33 30 25 22 20 18 17 17 17 20 17 17 19 18 17
49 50 50 52 52 53 53 53 52 53 54 55 55 55 55 56 57 56 54 51 50 47 44 43 44 41 39 38 36 34 30 26 33 34 28 23 25 25 25 22 20 18 20 17 19 19 19
48 49 50 51 52 53 53 52 52 53 53 53 55 55 55 55 56 55 52 50 48 46 45 44 43 41 37 40 35 35 35 29 24 32 30 30 28 25 27 22 18 19 15 18 17 21 20
48 49 50 50 51 52 51 52 53 53 53 53 55 55 55 55 55 53 50 48 47 45 44 43 39 42 41 37 33 32 38 32 25 22 30 30 27 23 23 18 16 17 16 16 16 16 19
49 48 49 50 52 51 52 53 54 52 53 54 55 55 54 55 53 50 48 46 42 41 42 41 39 38 37 33 33 32 37 33 22 22 25 25 22 19 20 20 18 17 16 16 16 17 17
49 49 50 49 49 51 51 54 54 54 55 56 56 55 54 55 52 50 47 43 42 42 40 40 40 40 39 37 32 31 34 26 19 17 22 23 23 24 21 19 17 19 16 15 15 14 12
50 50 48 48 49 51 52 54 55 56 56 56 55 55 55 52 50 48 45 43 39 39 37 38 38 38 39 38 37 35 32 29 24 19 15 25 25 20 17 19 18 18 15 14 10 16 20
49 49 48 49 50 51 52 54 55 56 55 55 55 55 52 50 45 43 41 41 39 40 34 30 32 34 36 37 35 37 33 31 31 31 26 27 25 23 21 19 17 15 14 13 16 19 14
49 48 48 49 50 50 51 52 54 56 55 55 55 52 50 48 43 41 41 42 41 39 24 25 26 29 32 34 30 32 37 30 30 28 29 28 25 26 26 20 17 16 18 21 20 20 19
49 48 48 48 48 48 49 50 50 51 53 52 51 49 45 44 44 43 43 43 42 33 25 24 21 25 28 30 29 29 35 32 33 37 37 33 33 32 30 30 28 23 22 22 22 20 17
48 49 49 48 47 47 47 47 47 47 47 46 46 45 43 45 40 45 44 42 30 27 23 23 23 27 25 23 25 27 34 30 30 31 30 30 28 23 25 23 26 25 21 18 16 16 12
48 48 49 48 48 48 48 47 47 47 47 47 46 45 44 44 45 46 44 35 26 27 20 14 15 20 25 22 23 24 32 31 30 23 20 19 18 18 21 20 19 23 19 17 12 10 8
47 48 48 48 48 48 48 48 47 46 46 44 43 43 42 44 46 46 38 29 28 24 23 19 19 25 23 20 17 20 24 25 21 21 19 18 18 21 19 21 22 19 19 18 17 17 15
46 47 48 48 48 47 47 46 46 46 43 40 36 37 37 42 45 42 36 27 24 20 18 19 21 29 25 17 18 19 20 18 17 20 22 21 18 20 17 19 17 24 23 24 24 15 10
46 46 48 48 47 46 46 46 46 44 42 40 33 31 38 43 44 37 30 24 23 23 20 23 24 26 26 17 18 25 19 20 21 21 23 21 18 17 16 16 13 16 22 27 26 23 16
45 44 48 48 47 46 46 46 45 45 42 38 36 32 41 44 34 35 28 24 29 22 24 25 29 27 26 23 27 25 21 22 28 26 22 21 16 10 12 20 17 13 19 19 19 15 21
45 43 46 48 47 46 45 45 45 44 42 35 34 34 41 41 31 28 26 23 24 23 23 27 26 29 23 24 18 28 28 30 29 26 21 18 14 13 11 17 18 16 20 19 20 19 17
43 43 44 47 47 46 45 44 43 44 42 38 32 31 36 38 36 30 26 24 23 24 24 26 27 29 25 21 20 21 21 23 28 27 29 21 12 7 3 12 17 17 17 15 18 22 14
42 43 44 46 46 46 44 42 42 44 42 37 32 31 27 30 30 29 27 23 23 21 26 24 26 29 32 20 18 19 19 22 23 25 24 21 10 11 13 14 13 13 12 11 10 8 11
41 43 43 46 45 45 44 43 41 43 41 36 36 27 27 23 27 28 28 22 21 22 23 21 25 22 24 25 20 17 18 18 17 20 20 21 18 15 9 11 12 10 8 8 9 8 6
41 44 44 46 46 44 43 42 42 42 40 35 36 35 28 26 24 26 24 22 21 22 23 26 23 20 19 20 21 21 21 21 21 18 18 15 21 13 -1 9 8 4 9 8 7 10 19
45 45 44 46 44 42 41 41 42 41 40 39 35 34 32 26 19 24 21 22 21 21 22 21 21 20 23 25 24 22 20 19 17 19 16 16 15 14 9 10 7 22 26 27 25 26 28
43 44 46 44 44 42 41 40 40 40 41 41 38 34 31 28 19 22 22 21 22 23 23 23 25 27 27 23 19 17 20 21 23 23 17 17 19 20 19 15 13 23 26 27 27 23 29
43 44 44 44 42 42 41 39 41 42 43 44 39 39 33 31 23 22 23 23 21 21 24 26 28 30 28 27 23 14 12 13 19 23 25 21 21 23 19 14 12 27 25 25 29 22 25
43 44 43 42 42 42 41 41 42 43 44 41 36 41 33 36 28 25 22 23 25 23 21 25 25 25 29 28 26 23 18 19 18 21 22 22 22 19 19 19 24 25 26 27 22 23 26
44 43 42 42 42 41 41 41 43 44 43 38 37 39 34 32 30 30 28 26 27 23 22 27 25 25 26 22 22 23 25 23 23 27 25 23 21 20 19 20 17 26 25 26 27 29 28
43 42 42 42 42 42 41 42 43 43 42 38 35 37 37 32 30 33 32 31 29 27 25 27 25 25 29 23 22 24 26 28 25 22 28 25 28 27 25 25 28 27 27 28 30 29 28

GFSGBSN_sfc_dewp_105.txt.gz
Dewpoint
52 52 52 52 52 52 52 53 54 54 55 55 56 56 56 57 59 59 57 55 54 53 51 47 46 47 42 40 40 45 56 51 41 38 27 28 27 26 25 24 21 21 20 19 15 15 15
50 51 51 52 51 52 52 53 54 54 53 54 55 55 55 55 56 58 57 55 54 53 50 47 45 46 41 41 44 43 31 37 31 33 31 29 28 27 25 22 20 19 17 17 18 16 17
50 50 51 52 52 52 53 54 54 54 53 53 53 54 55 55 55 56 57 55 53 52 49 46 44 41 41 42 44 40 29 31 37 34 34 33 29 26 25 24 23 21 18 19 18 19 20
49 49 49 51 52 52 52 53 54 53 53 53 53 53 54 55 55 55 56 54 52 50 47 43 42 41 42 44 43 42 41 32 31 32 32 31 29 25 24 25 23 22 23 20 22 21 19
49 49 49 51 51 51 51 53 52 52 53 53 53 53 54 55 54 55 55 53 51 48 46 44 43 43 40 44 40 39 39 36 34 31 33 31 26 28 26 25 24 27 21 23 22 22 20
47 48 49 50 51 51 52 52 51 52 53 53 54 54 54 54 54 55 53 51 49 47 45 42 41 41 40 37 38 33 35 36 35 32 30 32 28 28 26 25 25 26 25 23 21 22 20
48 49 48 49 51 51 50 51 51 52 53 54 54 54 54 55 54 52 49 47 44 42 42 41 38 37 37 36 35 33 36 35 32 26 24 28 27 26 28 29 27 26 25 26 21 20 20
48 49 49 49 49 48 49 51 52 52 53 54 55 55 55 55 54 50 50 46 45 43 41 42 41 39 38 39 37 36 33 32 31 27 26 26 28 28 28 26 26 26 24 24 25 23 19
49 49 49 48 47 49 50 51 52 52 53 54 55 55 55 54 51 51 48 48 41 44 41 38 37 37 37 37 36 35 35 33 30 26 25 24 27 28 27 28 32 31 27 23 25 27 20
49 50 50 48 46 49 50 51 52 53 54 55 55 55 54 52 49 49 46 42 42 48 37 30 31 33 34 36 35 35 36 34 31 27 26 26 26 27 27 29 31 29 29 23 25 21 14
49 49 50 49 48 50 50 51 52 53 55 56 55 54 52 50 46 45 42 41 41 45 26 18 26 32 32 34 29 27 33 35 31 29 32 29 27 27 27 28 26 30 28 27 26 18 17
49 49 49 49 49 49 49 49 49 52 55 55 54 51 50 48 47 46 43 42 46 34 23 23 23 23 27 32 30 25 30 34 34 34 37 35 38 33 27 25 28 33 32 26 25 21 19
48 49 49 49 48 48 48 47 47 48 50 52 51 49 46 47 43 46 45 44 32 28 27 25 21 23 24 25 26 25 28 32 30 32 32 33 32 35 32 31 30 32 32 24 22 22 21
48 48 48 48 49 48 47 46 46 47 47 47 46 46 45 45 46 45 44 37 28 26 27 21 21 21 24 25 24 23 25 30 29 30 31 32 29 31 31 29 30 29 29 22 18 17 17
46 46 48 48 48 49 49 48 48 47 47 46 44 44 44 45 46 46 39 32 30 32 27 23 19 21 23 22 23 22 23 29 29 30 28 24 21 22 22 23 23 30 25 23 21 22 19
45 46 47 47 47 49 49 48 47 47 46 44 40 39 41 46 48 44 36 32 29 26 22 20 21 29 23 23 22 18 19 25 29 32 28 27 24 20 19 19 21 23 27 22 25 21 13
44 45 46 46 47 49 48 48 47 46 44 43 43 38 41 44 45 38 33 29 26 24 21 22 23 27 25 24 21 19 22 20 27 21 23 24 23 22 19 18 19 19 30 28 29 25 19
44 44 45 45 44 49 48 47 47 45 41 39 37 36 42 45 34 36 30 28 28 24 23 23 26 26 25 26 21 28 24 22 25 22 23 27 25 22 17 21 19 18 17 23 27 21 26
42 43 44 45 44 46 48 47 46 46 43 39 39 35 42 42 32 31 29 26 24 24 23 26 26 26 26 27 24 34 26 30 30 26 25 24 23 16 15 17 17 14 15 18 20 21 16
40 42 44 44 44 47 47 47 47 46 44 42 36 34 35 37 37 33 27 26 23 24 24 26 31 28 26 26 25 29 30 30 27 25 29 25 19 18 14 16 17 17 14 14 17 23 16
41 41 43 43 44 44 48 47 46 46 44 42 38 35 32 31 33 30 30 26 24 23 23 25 30 29 28 25 24 24 25 26 25 27 23 23 18 14 10 10 10 12 13 12 11 11 11
41 42 42 43 44 43 48 46 46 46 43 40 38 31 29 28 28 28 31 29 23 23 23 24 26 27 30 28 24 21 22 22 19 21 20 20 16 16 12 10 8 6 4 5 5 5 6
41 43 42 43 44 44 47 45 44 45 42 39 39 37 30 29 28 29 30 25 24 27 25 27 27 25 28 28 23 23 22 21 21 21 21 19 22 14 3 7 5 2 7 5 5 3 10
43 41 42 42 43 43 46 44 44 44 42 42 43 39 33 28 26 25 25 25 25 27 25 25 29 23 24 23 23 22 21 19 19 18 19 17 16 14 10 9 3 21 25 24 24 23 26
42 41 42 44 45 46 45 44 44 44 43 41 43 38 36 33 20 24 26 23 26 26 30 22 23 25 26 23 19 16 17 16 16 14 13 13 16 18 18 12 15 19 24 28 27 27 28
41 42 45 44 44 46 44 43 43 43 42 41 40 43 38 36 24 25 24 26 25 24 25 27 29 30 27 24 21 12 12 10 16 19 19 17 21 23 18 16 11 29 24 24 28 23 25
41 45 45 44 44 44 43 42 43 42 41 42 42 44 37 38 29 29 27 26 26 25 24 26 27 26 26 27 26 21 17 15 16 19 21 21 22 20 18 17 25 26 25 27 23 24 26
42 44 44 43 43 42 41 41 43 43 43 43 42 42 38 35 31 30 28 27 27 24 25 27 25 25 23 23 20 23 25 21 23 30 23 21 20 19 18 20 21 26 25 25 28 29 26
44 43 42 43 42 42 40 42 43 44 44 44 40 38 37 34 32 34 33 32 31 30 25 28 26 23 28 23 21 23 25 28 25 22 28 28 30 31 27 27 28 28 28 28 29 28 29

GFSGBSN_sfc_dewp_108.txt.gz
Dewpoint
52 52 53 52 53 52 52 53 54 55 55 55 54 55 55 55 56 56 57 57 56 55 53 50 48 47 43 43 43 46 57 51 40 32 33 32 29 30 28 28 28 27 26 24 23 22 22
51 51 51 52 51 51 51 52 54 54 55 54 54 54 54 55 56 55 55 57 56 55 53 49 47 46 42 41 44 45 44 40 36 34 34 35 32 32 31 30 29 27 25 24 23 19 19
50 50 50 52 52 52 52 53 54 54 55 54 54 53 54 54 54 55 55 56 55 54 52 48 46 42 42 42 42 42 41 37 34 38 36 36 35 33 32 31 30 28 25 24 24 24 22
50 50 50 51 52 52 52 52 52 54 54 54 53 53 54 54 54 55 55 55 54 53 50 47 44 42 41 42 42 42 41 39 40 34 33 34 36 34 32 31 28 27 27 26 27 26 25
49 48 49 50 52 51 52 52 52 53 53 52 53 54 54 53 54 54 55 55 54 51 48 46 43 43 38 45 41 40 40 38 39 36 33 33 35 33 31 28 27 28 26 27 28 29 26
47 49 49 51 51 51 52 52 52 52 52 52 53 54 54 54 54 54 54 53 51 48 46 44 43 41 40 34 34 37 34 38 37 37 35 33 32 31 28 26 27 25 24 25 27 28 28
47 47 49 49 50 50 50 50 50 51 52 52 53 54 54 55 54 53 50 48 45 43 42 41 38 36 35 34 35 34 33 35 34 35 31 30 28 27 24 25 26 26 25 25 26 27 28
49 47 48 48 49 49 48 49 50 51 52 52 53 53 54 55 54 51 49 47 44 44 40 43 42 39 37 36 34 32 34 30 32 29 28 26 23 22 23 24 26 27 28 28 30 29 27
50 49 48 48 49 49 49 49 51 52 52 52 52 53 54 55 53 50 49 48 44 45 39 36 37 40 38 37 35 33 32 32 29 28 27 25 24 23 23 26 25 24 25 28 28 28 28
51 50 49 48 49 50 49 50 51 51 52 52 52 54 54 54 49 50 48 45 47 49 37 27 28 31 33 35 32 33 34 32 31 28 28 27 26 24 22 24 25 25 27 28 28 29 29
50 50 50 50 49 50 50 51 50 50 51 52 52 55 53 51 49 48 44 43 48 47 23 7 20 30 30 30 27 28 32 32 30 30 30 28 27 27 25 23 23 26 33 32 34 32 29
48 49 49 50 50 50 50 50 50 49 50 53 54 54 52 49 49 46 43 46 48 35 22 17 23 27 28 30 30 26 27 31 34 32 32 32 37 35 32 31 29 34 34 32 32 30 27
48 48 48 49 49 49 49 48 47 48 50 54 54 53 51 49 45 43 45 46 33 28 19 15 17 22 23 24 28 29 27 28 30 31 31 30 32 33 33 30 28 30 33 26 25 26 21
48 48 48 48 48 49 48 47 46 46 47 47 47 47 46 46 45 45 47 39 30 20 22 20 21 18 20 21 23 25 25 23 30 29 26 25 25 29 33 30 27 27 31 24 20 22 20
46 47 47 47 48 48 48 48 47 46 46 46 45 45 44 46 48 48 41 32 29 26 22 23 21 20 19 21 22 24 25 23 24 31 30 25 24 29 30 30 29 32 31 30 25 27 28
44 45 46 47 47 47 48 49 48 48 47 46 42 41 42 47 48 45 36 32 32 32 34 30 27 28 22 22 23 28 24 24 22 32 30 32 24 29 28 28 27 30 30 31 31 22 21
42 43 45 46 47 47 47 48 49 48 47 46 44 38 42 46 46 37 32 34 33 34 32 25 25 24 27 25 25 31 32 24 25 30 29 33 25 27 27 23 18 22 23 33 35 25 23
41 42 43 45 45 46 45 47 50 48 47 43 42 34 43 46 33 34 32 33 36 32 25 22 24 25 25 26 25 23 29 30 31 34 32 30 26 23 22 20 19 21 22 32 31 28 31
41 41 42 43 45 46 44 42 49 48 46 40 38 36 43 42 30 31 32 30 32 25 25 23 23 25 27 27 25 28 29 32 29 25 24 28 26 20 23 23 19 18 21 20 23 23 18
39 39 41 42 43 45 45 44 47 48 45 43 38 32 34 36 36 34 30 30 30 25 24 25 25 29 26 26 25 28 31 30 28 27 30 28 23 21 21 23 20 19 15 14 19 23 19
40 40 41 42 42 44 44 46 46 47 45 42 37 35 31 28 30 33 33 27 28 26 24 26 28 28 27 24 23 26 30 29 28 27 26 25 22 20 18 11 10 14 10 10 10 11 17
40 41 42 42 42 44 44 43 45 48 46 40 36 37 34 29 30 32 32 31 25 24 24 22 27 27 27 27 25 24 31 27 25 24 25 27 23 22 18 12 9 7 4 5 8 8 5
40 40 41 41 43 44 44 44 44 47 44 37 38 38 38 32 35 30 30 30 29 27 27 23 26 27 27 29 30 26 27 27 24 25 27 24 25 18 12 12 6 5 9 4 7 5 12
39 39 40 41 43 43 44 43 45 46 43 38 43 43 37 30 28 30 26 26 26 28 32 29 32 30 30 28 24 23 24 23 23 24 22 22 20 17 11 11 1 21 24 22 22 27 27
41 41 43 43 43 43 42 45 47 46 45 44 45 41 38 34 30 26 27 28 28 33 32 26 28 32 27 23 22 19 17 16 16 16 16 16 19 15 14 10 18 19 23 27 25 27 27
41 41 42 42 43 43 44 43 46 45 45 43 43 44 40 34 32 27 28 30 35 33 30 28 28 29 28 29 25 17 15 13 16 17 11 12 17 24 19 15 11 27 23 24 28 23 25
42 42 42 42 42 43 44 46 44 45 44 43 43 44 41 35 34 35 32 33 33 32 26 28 28 27 28 30 27 22 19 13 17 17 16 18 21 19 19 16 25 27 24 26 22 23 26
42 41 43 45 45 45 45 44 44 43 44 43 42 42 42 36 33 36 34 34 32 30 27 29 27 27 26 25 21 23 25 20 24 30 19 19 18 19 19 19 19 26 26 25 28 28 27
42 45 45 44 44 44 43 43 42 42 42 43 39 42 42 39 33 36 34 33 32 31 31 30 26 27 30 23 19 21 25 28 26 22 29 27 30 29 26 26 27 28 28 29 31 28 27

GFSGBSN_sfc_dewp_111.txt.gz
Dewpoint
52 52 52 53 54 53 52 53 54 54 55 55 55 55 54 53 54 56 56 55 57 57 56 54 50 47 43 42 43 47 57 54 44 32 30 29 33 30 29 29 30 28 28 29 28 26 24
51 51 52 52 51 52 51 52 53 54 54 55 55 55 55 54 55 55 55 55 56 57 55 53 50 46 42 40 42 43 44 45 35 33 32 34 35 34 32 31 31 31 31 30 28 25 25
50 51 51 52 52 52 52 53 53 54 53 54 55 54 54 54 54 52 53 55 55 56 54 52 49 43 42 42 43 42 42 42 39 37 36 36 36 34 35 33 34 31 28 28 28 26 25
50 50 50 51 52 52 52 53 53 53 53 54 54 53 53 54 54 52 52 54 55 55 53 51 46 43 41 44 44 43 43 42 41 40 34 34 33 33 33 33 30 29 28 25 27 27 28
50 49 48 50 51 52 52 52 53 53 54 53 53 53 53 54 54 53 53 54 55 54 51 48 44 42 41 44 42 42 42 40 39 39 37 32 34 33 34 31 29 29 26 26 26 29 29
48 48 49 50 51 52 51 52 52 52 52 52 53 53 53 54 54 54 54 53 52 49 47 45 44 42 42 34 40 40 40 40 39 39 39 35 32 30 31 30 26 25 26 25 24 24 31
48 48 48 49 51 50 50 51 52 51 51 52 53 53 53 54 54 53 50 48 45 44 43 41 41 40 35 36 34 36 34 35 36 37 34 35 31 28 30 30 29 27 25 23 24 28 29
50 50 48 47 48 49 49 50 50 50 52 52 52 52 53 54 54 51 49 46 44 43 41 43 42 41 38 38 35 34 36 32 34 31 32 31 28 29 29 29 26 23 22 24 26 27 28
51 51 49 48 48 48 49 50 50 50 51 52 52 52 53 53 53 51 48 47 46 46 39 37 42 42 42 41 38 35 34 33 31 30 29 28 27 28 26 24 22 21 24 24 23 25 29
50 51 50 49 49 49 50 51 50 50 51 51 51 51 52 53 50 49 48 50 46 48 33 32 31 35 39 38 36 37 36 33 31 30 29 28 28 28 27 25 24 23 26 31 31 31 29
49 49 50 50 50 50 50 50 50 51 51 50 50 51 52 51 48 48 46 45 47 45 22 20 23 33 34 35 31 32 36 34 31 30 31 29 29 27 31 29 31 29 34 33 33 31 30
49 49 49 50 50 50 50 50 50 50 48 48 51 52 53 51 50 47 45 45 47 34 22 21 27 28 30 34 30 30 31 33 34 33 32 30 36 36 34 33 32 34 33 31 32 32 26
47 48 49 49 49 49 49 50 50 48 48 48 52 54 53 49 46 44 45 47 33 26 22 13 21 27 28 28 28 29 28 29 30 29 30 31 32 34 35 32 32 34 30 24 20 25 21
45 47 48 49 49 49 49 49 49 47 47 47 48 51 48 48 45 44 47 39 27 25 22 19 20 20 22 23 24 28 28 27 30 31 27 27 24 29 34 32 29 30 28 23 19 20 25
44 46 47 48 48 48 49 49 48 47 47 46 46 45 44 46 47 48 43 32 29 27 23 23 21 18 19 21 21 22 26 27 26 30 28 27 24 30 30 32 31 32 29 29 27 26 23
43 44 45 47 47 48 48 48 48 47 47 46 42 42 42 48 49 46 38 32 31 31 28 31 28 29 21 20 20 24 30 28 27 29 32 32 28 29 30 32 32 31 32 29 30 21 20
43 43 44 45 46 47 47 48 48 48 48 47 43 38 43 48 46 38 32 33 34 33 31 32 32 30 29 27 26 30 32 34 33 32 31 33 30 27 29 30 27 28 29 32 33 32 24
42 42 43 43 44 46 47 47 48 48 48 44 41 33 43 46 34 33 32 34 36 33 34 34 32 30 29 28 26 26 31 33 32 33 33 35 31 25 25 29 29 26 27 29 28 27 30
41 42 42 42 43 45 46 46 44 47 48 41 37 35 43 43 29 30 32 31 33 34 36 34 26 27 28 27 27 30 32 36 32 32 37 37 32 25 22 27 29 24 24 31 31 32 25
41 41 42 41 41 43 44 45 45 45 47 44 36 29 34 35 35 33 30 32 34 38 31 32 26 26 29 27 29 28 33 32 33 29 35 33 28 23 20 26 28 22 19 22 26 23 22
41 41 41 40 40 42 42 44 45 45 46 43 37 33 31 27 30 33 33 32 29 32 29 27 28 28 29 26 27 25 30 33 30 30 29 30 24 25 22 25 18 14 14 16 18 19 19
40 40 40 39 40 40 41 44 45 46 47 39 33 34 37 30 29 31 32 36 32 30 31 24 29 30 29 27 27 26 34 34 28 26 29 30 27 25 23 20 13 12 9 8 10 10 12
38 39 40 40 39 41 41 43 44 45 44 35 39 39 37 33 32 30 27 29 31 32 30 27 27 28 29 30 31 29 34 33 29 26 26 25 25 23 21 20 17 10 20 18 22 25 25
39 39 39 40 39 40 42 44 45 45 44 41 40 38 36 30 32 30 29 29 30 30 33 32 32 32 33 30 29 29 32 31 28 29 28 26 23 23 20 13 9 22 25 26 27 27 27
38 39 39 39 40 41 43 44 44 44 45 42 43 40 37 30 31 30 32 29 29 31 35 36 34 35 34 27 24 21 19 20 22 23 24 23 24 19 18 18 21 21 26 25 23 25 27
41 41 41 41 41 42 43 44 44 44 45 43 43 43 38 33 30 34 31 31 33 34 34 35 35 34 28 28 25 23 19 18 17 16 17 17 23 23 21 17 12 23 26 28 30 19 25
41 41 41 42 42 43 43 43 42 45 46 43 41 43 40 33 35 38 35 34 38 35 33 30 28 27 29 26 23 23 23 18 18 19 17 19 22 20 21 19 23 29 26 29 16 17 25
41 42 42 42 43 42 43 44 43 46 46 43 41 43 41 34 35 38 38 37 38 36 31 29 26 26 27 25 26 26 28 27 25 25 20 21 21 21 21 18 17 27 27 23 24 27 26
41 41 42 42 41 43 43 43 44 45 45 42 39 42 45 36 36 39 37 39 38 37 31 30 28 27 30 26 24 25 27 27 27 24 30 20 24 24 25 23 28 27 28 31 30 27 27

GFSGBSN_sfc_dewp_114.txt.gz
Dewpoint
54 54 54 53 54 53 51 52 54 54 54 54 55 55 54 53 53 55 55 55 55 56 58 56 53 48 43 43 43 46 57 55 44 33 30 30 33 33 29 29 31 31 30 30 31 31 30
53 52 53 53 52 51 51 52 53 53 54 54 55 55 55 54 53 54 54 54 55 55 57 55 52 46 42 40 41 42 42 45 39 35 32 31 34 35 34 32 32 32 32 31 30 29 28
51 52 53 52 52 51 52 53 53 53 54 53 54 55 55 54 54 54 53 51 54 54 56 55 51 44 42 42 44 44 43 42 42 37 34 35 35 35 35 32 35 32 30 30 29 28 27
51 51 52 53 52 52 52 53 53 53 54 53 54 54 54 54 54 54 52 51 54 54 56 54 49 43 41 44 45 44 44 43 43 43 40 38 37 33 33 33 31 29 29 27 27 28 28
50 50 50 51 50 51 52 52 52 53 53 53 53 53 53 53 53 54 54 54 54 55 54 50 45 43 41 46 43 44 44 41 42 42 40 37 33 32 33 31 30 29 26 27 27 28 28
49 49 49 50 51 51 52 52 52 53 52 52 52 53 53 53 54 53 54 54 53 50 48 46 45 41 42 36 40 41 42 41 40 40 39 34 31 30 31 30 25 25 26 25 25 26 28
49 49 49 50 50 49 50 50 52 51 51 51 53 53 53 53 53 53 50 48 45 44 44 40 40 41 36 38 39 39 38 40 39 37 34 34 31 28 28 31 30 29 27 26 27 25 27
52 51 50 49 50 48 48 49 51 51 51 52 52 52 52 53 53 52 48 44 43 43 40 43 42 42 39 38 35 36 36 35 34 33 34 33 31 32 31 31 31 30 28 26 24 25 25
52 51 51 50 49 48 48 49 50 51 51 51 52 52 52 52 53 51 47 46 48 46 39 40 42 41 40 41 37 35 36 33 32 31 31 30 29 31 30 29 28 27 25 23 22 30 28
51 51 52 51 50 50 50 50 51 51 51 52 51 51 51 52 49 50 48 49 50 46 29 31 37 40 41 41 38 38 34 34 32 30 30 30 30 29 28 27 27 25 31 31 31 29 25
50 50 51 51 51 51 51 51 50 51 51 50 49 49 51 53 46 48 48 50 48 45 3 19 32 39 41 35 32 36 37 35 30 30 31 29 29 28 27 27 30 30 34 32 32 30 29
50 49 49 50 50 50 50 50 50 50 50 48 48 48 51 51 50 47 48 47 47 33 14 23 29 35 37 35 34 32 35 35 34 33 32 30 35 32 30 33 32 35 32 31 31 30 21
49 49 49 49 49 50 50 50 50 50 49 48 48 49 51 50 45 47 47 47 33 23 24 19 25 33 33 32 33 30 29 30 29 28 29 31 32 35 36 33 33 32 28 25 18 21 19
47 47 47 48 49 49 49 49 50 49 48 47 47 47 49 51 47 47 48 39 27 26 23 21 23 26 27 30 31 30 28 27 29 29 28 28 25 32 34 32 30 30 28 24 17 19 22
46 46 46 47 48 49 49 49 49 49 48 47 46 45 45 47 48 50 43 31 26 26 25 24 21 19 19 26 25 28 27 27 27 31 27 27 26 30 34 34 31 31 27 28 27 27 20
45 45 45 46 47 48 48 48 49 49 48 46 41 42 42 47 48 47 39 32 30 30 28 29 29 29 23 19 21 22 27 31 28 31 31 30 26 29 31 32 33 30 32 28 28 19 19
44 44 44 45 46 47 47 47 48 49 48 47 42 36 42 48 48 41 32 32 31 31 32 30 29 30 29 27 26 30 29 33 33 33 32 33 30 28 32 30 30 31 29 32 30 28 22
43 43 44 44 44 45 46 46 47 48 48 46 41 33 43 46 35 33 33 34 34 34 35 33 35 33 31 29 27 27 32 32 33 32 32 37 33 29 25 31 31 30 29 32 25 23 27
42 42 42 43 43 45 46 46 47 47 48 43 37 36 43 43 30 30 34 35 34 35 32 33 32 33 31 28 28 30 31 36 33 34 36 37 34 28 27 28 29 27 27 28 30 32 27
41 41 42 42 43 43 43 45 46 46 47 44 35 29 34 35 35 33 30 33 33 35 36 36 34 33 27 27 29 28 33 34 34 34 39 40 35 31 24 25 27 23 23 29 30 26 23
41 41 41 42 42 42 42 43 44 46 45 42 34 32 31 27 29 32 32 29 28 33 36 36 34 30 28 26 27 28 33 31 30 35 32 33 27 28 26 27 26 23 14 18 25 24 21
41 41 41 41 42 41 40 42 44 45 45 40 32 33 35 30 29 30 33 34 29 29 31 34 34 34 30 27 27 25 32 33 28 25 30 31 27 30 28 26 19 12 11 12 11 19 28
39 40 41 41 41 41 40 42 43 44 44 36 38 40 37 33 29 29 27 28 30 32 33 31 31 30 30 30 32 29 35 35 33 26 27 29 29 28 25 27 25 19 16 22 25 25 26
39 39 39 39 39 39 40 42 43 43 43 39 40 39 35 29 32 29 28 28 28 29 31 32 34 31 32 35 34 32 32 31 28 28 28 26 27 27 23 25 19 23 29 28 26 26 28
38 39 39 39 39 40 41 42 43 44 44 40 41 39 35 27 32 33 34 33 30 30 31 35 36 36 35 32 30 28 27 27 29 28 28 28 29 26 19 18 22 22 26 27 25 23 27
37 37 38 38 40 41 41 42 43 44 44 42 42 43 39 33 29 32 33 34 31 28 33 36 40 41 32 28 27 23 18 20 19 21 26 27 26 24 22 15 14 22 27 28 26 16 25
39 41 40 40 42 41 42 42 43 44 44 43 42 43 39 33 34 35 33 31 36 35 30 34 36 33 31 26 20 22 22 21 18 19 19 19 21 17 21 19 23 28 28 30 14 17 25
40 41 41 42 42 42 42 42 44 43 45 43 41 43 40 35 35 36 37 36 37 34 28 34 32 30 26 23 25 23 23 25 23 23 20 19 19 21 21 18 16 27 27 23 22 26 26
40 41 42 42 43 43 43 44 44 44 43 43 39 43 44 35 36 39 39 40 39 39 32 31 29 28 29 24 25 27 27 30 26 23 30 19 22 22 23 19 27 28 27 28 27 25 26

GFSGBSN_sfc_dewp_117.txt.gz
Dewpoint
56 55 56 56 56 54 52 52 54 53 54 53 54 54 53 53 52 53 55 54 55 55 55 57 54 50 45 43 41 46 55 54 45 34 31 30 33 32 30 30 32 31 31 32 32 30 30
56 56 55 54 54 53 51 52 53 53 53 53 53 54 54 54 53 53 54 53 52 55 55 57 52 47 44 39 41 42 43 42 44 38 32 30 34 35 34 33 32 33 33 31 31 31 30
54 54 54 54 53 53 52 53 53 53 53 53 53 54 54 54 53 54 52 50 51 52 53 56 51 44 42 41 44 44 44 43 42 38 34 35 36 34 35 31 34 32 30 30 30 30 28
53 52 52 54 53 52 53 53 53 53 54 53 52 54 53 53 54 54 53 50 52 53 52 55 50 43 41 45 45 44 44 43 44 43 42 41 39 35 32 33 32 30 30 27 27 27 27
52 52 52 53 53 52 52 52 52 52 52 53 53 53 52 53 53 53 54 53 53 54 55 51 44 44 40 46 41 43 44 42 42 42 41 40 37 32 32 30 29 30 26 26 26 28 27
51 52 51 52 51 51 51 52 52 52 53 52 52 52 53 53 53 53 53 53 53 51 49 46 45 41 40 31 37 41 44 42 41 40 39 38 32 31 31 29 24 25 27 24 26 25 26
50 50 50 51 51 50 48 50 51 52 52 50 51 52 53 52 52 53 50 46 44 42 45 40 39 38 37 38 39 39 42 41 40 38 35 33 29 28 29 31 30 29 27 27 27 28 27
52 51 51 51 50 49 49 49 51 50 51 50 51 52 52 52 52 53 48 42 41 42 39 42 42 41 40 40 36 35 40 37 37 34 35 33 31 32 32 30 30 30 29 28 29 29 26
52 52 52 52 51 51 49 49 51 50 51 50 51 52 52 52 52 52 46 45 48 46 39 39 42 41 41 41 36 34 37 35 33 32 33 33 32 34 32 31 30 29 29 28 27 29 29
51 51 51 51 51 51 50 50 50 51 51 50 51 51 50 51 50 49 47 49 48 46 29 29 38 40 41 41 38 36 36 34 32 31 31 31 32 30 29 29 30 27 28 29 30 27 24
50 51 50 51 51 51 50 51 50 51 51 51 51 49 49 51 45 46 45 48 48 42 1 23 36 41 41 38 32 37 35 34 31 31 31 29 29 30 29 28 28 27 33 31 31 28 27
50 51 50 50 51 51 51 51 51 51 51 51 50 49 49 49 50 47 48 48 46 22 -2 20 36 37 38 37 34 37 35 36 33 32 32 29 33 30 29 31 31 34 31 30 31 29 20
49 49 49 50 50 50 50 50 50 50 50 50 49 48 48 49 43 49 48 46 31 16 18 17 29 36 35 34 32 31 34 31 31 29 29 30 31 33 34 32 34 31 30 28 21 21 20
49 49 49 49 49 49 50 50 50 50 50 49 48 47 49 48 48 48 47 39 23 24 23 23 26 34 31 32 31 31 32 31 31 29 28 27 23 33 35 32 31 30 29 25 18 18 20
48 49 49 49 49 49 48 49 49 49 49 49 47 44 46 48 49 49 42 30 24 25 26 24 18 19 23 29 28 30 29 29 30 30 25 27 27 30 34 33 32 30 27 28 27 27 21
47 47 48 48 48 48 49 49 49 49 49 48 42 41 42 48 49 47 38 30 29 28 28 29 22 24 19 19 26 28 27 29 28 31 30 29 25 29 32 33 32 30 31 26 27 19 18
45 46 46 47 47 47 47 48 48 48 49 47 41 37 41 48 48 42 31 30 28 30 30 28 28 28 29 27 24 25 25 30 31 31 31 31 29 27 32 31 30 30 29 30 28 25 20
45 44 45 45 45 46 46 47 47 48 48 46 41 34 40 48 36 35 33 33 34 32 31 32 35 32 30 29 28 26 29 31 33 34 31 35 33 29 28 30 32 31 29 31 22 22 27
44 43 43 44 44 45 46 46 46 47 47 44 37 36 42 43 30 30 32 32 33 31 31 33 30 33 34 30 28 29 29 35 33 35 35 36 32 26 28 31 33 33 30 31 31 30 26
44 43 42 43 43 44 45 45 45 46 47 43 35 30 33 37 36 31 31 33 32 36 34 36 34 33 31 29 31 28 31 34 34 35 41 39 34 28 22 25 29 30 30 30 30 27 25
43 42 43 43 43 43 44 44 45 45 46 43 36 31 32 27 30 33 32 31 29 32 34 36 32 34 31 29 28 29 32 31 30 39 37 35 29 31 32 31 32 32 30 30 27 27 25
41 41 42 42 42 43 43 43 45 45 45 41 31 32 35 30 30 32 31 30 29 29 30 35 33 33 35 31 31 25 32 31 28 31 31 32 26 28 27 29 27 27 21 11 23 26 27
41 41 41 41 42 42 42 43 43 44 43 38 36 39 36 31 28 29 28 28 27 30 30 30 32 33 32 34 35 34 32 34 34 28 29 30 29 28 24 30 32 27 23 15 25 26 28
40 40 41 41 41 41 41 42 43 43 42 39 40 35 32 26 30 28 27 28 28 28 30 32 33 31 33 38 39 37 33 30 32 28 31 29 29 29 25 27 20 25 29 29 26 26 29
40 40 40 40 40 40 41 42 42 43 42 38 39 38 35 29 27 31 31 28 29 29 29 30 31 37 38 36 32 30 28 30 30 29 28 30 28 26 20 22 23 24 26 25 25 24 27
37 38 39 39 40 40 41 42 42 43 42 41 38 41 37 32 30 33 33 32 30 31 30 30 38 42 39 32 30 23 21 23 25 26 28 29 29 26 24 18 16 19 27 28 24 15 26
37 38 37 37 38 40 40 41 42 42 42 40 39 41 39 32 33 35 32 31 34 32 31 32 37 36 37 30 24 22 21 22 21 22 26 27 27 23 21 19 20 27 28 28 11 15 25
38 40 39 37 37 38 40 41 42 42 42 41 40 43 38 33 35 36 35 34 34 34 28 32 33 32 31 27 27 25 22 22 21 19 22 21 22 21 20 18 13 27 27 22 22 25 24
41 41 41 41 42 40 40 41 42 42 43 43 39 43 43 36 34 38 37 39 38 38 31 32 30 31 32 29 26 28 27 24 23 20 27 17 21 20 23 20 27 29 27 26 26 25 22

GFSGBSN_sfc_dewp_120.txt.gz
Dewpoint
58 58 58 57 57 56 54 54 55 54 54 54 53 53 53 53 52 53 54 54 53 53 55 55 55 51 45 42 38 45 51 51 44 34 33 31 33 32 29 32 32 31 31 33 32 31 31
57 57 57 56 56 55 53 54 54 53 53 53 53 53 54 54 53 53 53 52 51 52 54 55 52 50 44 36 38 43 44 42 42 39 35 31 34 34 34 33 32 33 33 32 32 31 31
56 56 56 55 55 54 53 53 53 53 53 52 53 53 54 53 52 53 53 50 50 52 52 54 51 44 43 39 44 44 44 43 42 40 35 35 35 34 34 32 34 32 30 30 29 29 28
56 55 54 54 54 53 53 53 53 53 53 52 52 53 53 53 53 53 53 51 50 50 50 55 50 44 40 44 45 45 44 43 44 43 41 41 40 35 32 33 32 30 29 26 25 28 27
54 54 53 54 54 53 53 53 53 52 52 53 53 52 52 52 52 53 53 53 51 53 54 51 44 43 38 44 38 41 44 40 43 43 42 40 37 35 32 30 28 29 23 26 26 26 27
53 53 53 53 54 53 52 52 52 52 53 53 52 51 52 52 52 52 53 52 53 51 48 46 45 38 37 27 35 42 44 42 40 41 39 38 33 31 31 29 20 23 26 23 25 24 25
53 53 52 53 53 52 50 50 52 51 52 52 50 51 52 52 52 52 49 46 41 40 45 38 38 36 36 38 39 40 43 40 39 37 34 33 32 30 31 30 28 27 25 25 26 28 29
53 53 52 52 52 50 50 50 51 51 51 50 50 51 51 51 52 52 47 41 39 44 38 41 41 41 41 41 36 33 41 37 37 34 35 33 31 32 31 31 30 30 29 28 29 29 27
52 52 52 52 52 52 50 50 51 51 50 51 50 51 51 51 51 52 48 43 47 45 37 38 41 40 40 40 35 35 39 37 35 33 34 32 31 34 32 31 29 29 29 29 28 28 29
51 51 51 51 52 51 51 51 51 51 51 51 50 51 50 50 47 45 43 47 47 45 25 25 39 41 41 40 37 38 37 34 32 33 33 33 34 31 32 31 31 29 30 30 28 28 23
50 51 50 51 51 51 51 51 51 51 52 51 51 50 49 50 42 44 43 48 46 37 -1 25 38 41 41 35 34 37 35 34 31 31 30 27 29 30 29 28 30 28 30 29 30 28 26
50 50 50 51 51 50 50 50 50 51 51 51 51 49 49 47 49 46 48 48 45 18 -5 25 37 37 37 39 35 37 34 35 33 31 32 29 32 30 29 31 30 33 31 29 30 27 23
49 50 50 50 50 50 50 50 50 51 51 51 51 49 47 48 41 48 48 47 29 13 11 19 33 37 36 35 32 34 32 31 29 27 27 29 29 32 33 31 33 31 29 24 20 21 21
48 49 49 50 50 50 50 50 50 50 50 50 50 49 47 46 46 48 47 39 23 15 17 22 31 35 32 32 30 31 31 29 30 29 28 26 21 31 34 30 30 29 28 26 19 17 18
46 48 48 48 49 49 49 49 48 49 49 49 48 43 45 48 48 48 41 29 22 24 26 21 15 23 28 29 27 30 31 30 30 30 25 26 26 33 35 33 32 30 29 30 28 27 23
45 47 48 48 48 49 48 48 48 48 49 48 42 41 43 47 49 46 36 28 28 28 28 28 15 18 15 22 28 28 28 30 30 31 29 28 24 29 32 32 32 30 30 27 29 21 18
44 44 46 48 47 47 48 48 47 48 48 47 41 37 40 48 48 40 30 28 26 30 30 27 27 28 28 26 27 26 27 28 30 30 31 29 27 27 32 31 29 30 29 29 29 27 19
43 42 45 47 48 47 47 47 46 47 48 45 40 32 41 48 36 36 32 31 33 29 31 30 33 31 28 29 28 27 28 28 33 33 30 32 30 26 27 31 33 32 30 30 27 22 25
42 42 42 48 46 46 45 46 47 48 47 43 36 36 41 43 30 31 33 32 31 31 30 32 30 33 34 30 27 28 28 33 34 35 33 37 32 27 24 28 32 31 31 30 30 30 26
42 41 43 46 45 45 45 45 46 46 47 43 35 29 34 38 37 30 30 32 32 34 32 34 33 32 30 29 31 29 29 34 34 35 40 38 32 27 21 21 28 30 32 33 32 28 27
42 41 46 44 44 45 46 46 46 46 46 43 37 32 32 28 31 33 32 30 29 29 34 34 35 34 31 29 29 28 30 32 31 35 37 35 28 31 30 31 32 30 30 31 33 32 28
40 42 43 44 44 45 45 45 45 45 46 42 32 32 35 30 30 33 31 30 29 29 30 33 32 32 32 31 28 26 29 31 30 35 34 33 26 30 27 30 31 30 30 30 32 34 33
42 41 44 43 43 43 43 44 45 45 44 37 38 39 31 28 28 30 30 28 26 30 30 30 31 34 34 32 34 34 36 34 34 33 29 31 29 28 24 28 27 26 28 26 23 25 28
40 42 43 43 42 42 42 43 44 44 42 40 39 37 32 26 28 27 27 29 28 28 28 31 30 30 32 38 38 35 35 34 34 32 32 31 29 29 25 27 19 23 27 28 22 27 29
40 41 41 41 41 41 41 43 43 43 43 37 40 37 34 26 28 31 31 28 28 30 30 29 30 35 38 36 33 30 30 29 32 33 33 32 29 26 23 22 23 23 26 24 22 21 28
38 39 39 40 40 40 41 41 42 42 42 38 36 41 37 28 25 29 28 30 28 27 28 30 32 39 37 34 31 24 21 27 26 29 30 30 30 28 23 16 13 18 26 28 25 18 27
36 36 37 38 40 41 41 41 41 42 42 39 39 39 37 32 31 33 32 32 31 29 25 30 34 35 36 30 25 25 23 25 24 24 26 28 27 24 22 20 20 24 27 25 15 18 28
36 37 37 37 37 39 40 41 41 41 42 40 38 40 36 33 34 35 36 34 35 32 27 33 34 33 32 28 27 26 23 23 24 22 26 24 23 22 23 20 13 28 27 20 23 25 26
36 37 39 39 38 39 39 40 41 41 41 41 34 40 40 35 35 39 37 36 38 37 32 34 29 29 30 28 30 30 28 25 21 18 25 22 21 18 21 19 25 28 28 27 26 24 22

GFSGBSN_sfc_dewp_123.txt.gz
Dewpoint
61 61 60 59 59 58 56 55 55 55 54 54 54 53 53 53 52 52 54 54 52 52 53 54 55 52 46 37 32 46 50 50 42 36 34 32 33 32 29 30 33 31 31 33 33 32 32
58 58 58 58 58 57 55 55 55 55 54 53 53 53 52 54 53 52 53 53 51 52 53 54 53 51 45 28 37 44 43 41 40 40 33 33 35 35 34 33 32 33 32 32 32 31 31
57 57 56 57 57 56 55 55 55 54 54 53 53 52 53 53 52 52 53 53 50 52 51 52 52 44 43 33 43 44 44 42 41 39 38 35 35 34 34 32 33 32 30 30 28 28 27
56 57 56 56 56 55 54 54 54 54 53 52 52 53 53 53 52 52 53 53 51 50 50 55 49 44 37 43 45 44 44 42 43 42 40 41 41 35 33 33 31 30 29 19 24 27 28
56 56 56 55 55 54 54 54 53 53 53 53 53 53 52 52 52 52 53 53 53 52 54 51 46 42 35 43 37 40 43 39 42 42 41 40 38 36 33 30 27 29 16 24 23 26 26
55 55 55 55 55 54 53 53 53 53 52 53 53 51 51 52 52 52 52 53 53 50 48 46 45 37 35 24 35 43 44 42 41 41 40 38 34 34 32 29 12 16 23 26 23 24 27
55 54 54 54 54 53 53 52 53 52 52 52 52 50 51 51 51 52 49 47 41 40 44 37 36 33 35 39 40 41 43 40 40 38 35 35 34 31 31 32 26 26 25 25 28 29 30
54 55 54 54 54 54 53 52 52 51 51 52 50 51 51 51 51 51 47 43 38 44 38 40 40 40 41 40 34 34 42 36 37 32 35 32 32 34 32 32 30 30 29 28 29 30 29
52 54 52 52 53 53 53 52 52 51 51 51 50 51 51 51 49 51 46 44 47 46 39 36 41 39 37 39 34 32 39 38 36 34 34 30 27 34 32 31 30 30 30 29 29 30 29
51 52 53 52 52 52 52 52 51 51 50 50 50 51 50 49 48 46 43 46 48 47 28 22 37 40 41 39 31 36 39 37 34 33 34 33 34 32 33 31 31 29 31 31 30 27 24
49 50 51 52 51 50 50 51 51 51 51 51 50 51 50 50 44 44 43 48 48 36 6 26 38 42 41 32 35 37 35 34 32 33 32 27 30 31 31 30 32 28 30 29 29 28 29
48 49 50 51 51 50 50 50 50 51 51 51 51 51 49 48 48 47 49 49 44 25 3 27 37 38 37 38 36 34 33 35 34 32 32 28 32 30 30 32 30 32 31 30 31 29 25
44 47 49 50 50 50 50 50 50 50 50 51 51 50 48 46 42 48 49 47 30 15 10 24 32 37 35 34 34 32 31 31 29 28 28 30 30 32 32 31 33 31 30 23 23 23 20
42 42 45 49 49 50 50 50 50 50 50 50 50 50 48 46 47 49 48 39 22 11 13 21 34 36 32 32 30 33 30 29 31 28 28 26 20 29 32 29 28 30 27 22 17 19 18
41 43 43 45 48 50 50 50 50 49 49 49 49 46 45 46 47 49 42 29 23 23 23 17 23 29 30 31 28 31 28 28 30 30 22 26 24 32 34 33 30 31 29 30 28 27 25
41 42 43 45 47 48 49 48 48 49 49 49 43 43 42 46 48 45 36 28 28 27 27 27 11 19 19 26 28 29 31 31 29 31 30 28 23 29 32 32 32 31 31 30 32 22 18
40 41 42 42 43 47 48 50 48 48 48 47 42 38 41 48 48 38 30 29 27 30 30 26 25 27 27 22 29 29 27 28 31 31 31 30 27 27 33 32 30 30 29 29 29 29 20
39 40 42 43 44 45 48 48 49 48 48 44 40 32 42 48 34 34 30 29 31 28 28 29 31 32 27 28 27 26 26 27 33 32 31 32 31 27 27 33 32 31 30 30 28 26 28
39 40 41 41 42 43 44 47 48 47 47 43 36 35 42 44 28 29 29 28 29 30 28 30 30 32 34 30 26 29 28 33 34 34 33 36 33 27 28 32 33 32 32 32 33 31 27
39 40 41 42 43 44 45 48 48 47 47 43 36 30 35 38 37 31 27 27 28 31 30 31 32 32 31 30 32 30 30 33 35 34 41 38 34 29 23 26 30 31 32 32 33 29 27
39 40 40 42 42 45 47 48 46 46 46 42 36 33 33 28 32 32 31 30 28 27 32 32 30 33 30 28 28 28 29 30 32 34 39 37 29 30 29 28 29 28 27 29 30 30 27
37 38 39 41 41 44 45 46 46 45 45 40 32 33 35 31 32 31 29 27 25 28 30 34 33 32 33 31 29 26 30 31 29 35 37 35 29 30 27 30 30 29 29 29 29 30 31
38 39 39 41 39 44 43 45 45 44 46 37 36 39 34 31 30 31 30 27 28 29 31 31 33 32 32 33 34 35 35 34 34 33 32 33 31 29 24 27 30 27 28 28 28 29 29
39 41 40 42 42 42 45 44 42 43 44 39 38 36 32 27 30 28 31 30 28 29 28 30 32 31 32 38 37 36 35 35 35 34 35 33 32 31 25 27 21 20 27 28 29 29 29
39 41 41 40 43 43 45 44 44 44 42 40 41 37 34 28 29 29 29 29 30 31 30 30 32 34 38 36 30 28 28 30 31 32 33 33 31 27 25 23 23 22 25 28 28 27 30
39 40 41 40 42 43 43 43 44 44 43 39 41 41 35 30 28 29 30 30 28 28 29 30 33 37 36 32 30 22 19 24 24 28 33 33 32 28 26 21 17 26 26 28 26 23 29
37 39 39 40 41 41 42 42 43 42 43 40 39 40 37 32 32 32 30 30 31 30 28 30 34 35 36 29 26 22 21 24 18 25 26 28 29 26 24 22 23 26 27 24 22 28 30
34 35 35 36 39 40 41 41 42 42 42 40 37 41 37 32 32 36 35 34 34 33 28 31 33 34 33 28 25 25 25 25 26 27 26 25 25 24 25 23 19 28 25 22 31 28 30
35 36 37 36 36 37 39 41 41 41 41 40 35 41 40 35 33 39 38 37 37 36 34 35 31 33 33 29 28 28 27 28 25 23 26 26 30 26 25 26 27 29 29 28 28 28 29

GFSGBSN_sfc_dewp_126.txt.gz
Dewpoint
62 62 62 62 61 60 60 58 57 56 55 55 55 54 54 54 53 53 53 53 52 51 52 53 55 53 44 27 16 44 49 50 41 39 37 36 33 30 22 23 26 25 26 30 30 31 30
57 58 61 60 60 59 59 57 56 55 55 54 54 53 52 53 54 53 52 53 52 51 52 53 54 51 40 21 35 42 41 39 39 39 36 35 33 32 28 29 29 32 30 29 28 25 26
57 57 57 57 58 58 57 56 56 55 54 54 53 52 52 53 53 52 53 53 51 51 52 51 52 44 39 23 36 41 42 38 38 37 33 35 34 30 33 31 33 30 26 23 22 23 23
56 56 56 56 57 56 56 55 55 54 54 53 52 53 53 53 52 52 52 53 53 52 51 53 50 44 30 39 41 39 39 39 39 37 40 39 38 35 34 33 29 25 26 13 23 23 26
56 56 56 56 56 55 55 54 54 54 54 53 53 53 53 52 52 52 52 53 53 52 53 52 45 42 26 41 34 36 37 30 36 36 40 40 38 33 32 26 23 26 6 15 15 21 21
53 56 56 56 55 55 55 54 53 53 53 53 53 53 52 51 52 52 52 52 53 51 48 45 43 37 31 21 33 41 41 38 37 34 37 36 34 29 28 24 7 6 14 18 12 19 22
52 53 56 55 55 55 55 54 53 53 53 53 53 52 51 52 51 51 52 46 40 41 42 27 31 26 30 37 39 39 40 40 35 31 25 35 27 21 18 25 21 19 17 14 16 22 26
51 51 52 55 56 55 54 54 54 53 53 52 52 51 52 51 51 52 49 41 35 44 30 34 34 35 36 39 34 37 41 33 31 21 29 32 25 21 30 29 27 24 21 19 19 26 28
49 50 51 52 55 55 54 54 53 52 52 52 52 51 51 51 51 50 44 40 47 46 32 25 34 33 32 35 23 29 38 33 28 23 28 16 21 30 30 27 25 24 23 19 21 25 25
47 47 50 51 52 53 53 52 53 52 51 51 50 51 51 50 47 45 43 43 48 48 25 15 30 34 36 31 26 26 37 30 31 21 25 24 23 27 27 23 25 18 23 25 25 23 18
44 45 46 49 51 53 52 52 51 52 51 51 50 51 50 50 43 41 41 43 47 45 11 20 32 39 38 22 31 31 33 35 24 29 30 22 30 28 26 23 28 19 28 27 26 26 25
41 43 44 46 49 51 52 51 51 51 50 51 50 51 50 49 49 45 49 48 46 27 8 25 35 36 34 31 34 34 28 34 27 30 31 22 30 27 24 30 30 29 29 29 29 26 22
41 41 43 44 45 47 51 51 50 50 50 50 50 50 48 46 40 48 51 48 31 19 4 22 30 35 32 28 34 31 27 27 25 26 26 25 27 28 30 27 31 29 27 23 18 21 13
39 42 41 44 44 45 46 51 51 49 50 50 50 50 47 45 48 49 49 39 22 3 3 22 30 33 28 27 31 30 27 24 27 25 21 23 22 26 29 24 23 28 26 18 11 10 13
38 39 42 42 43 43 46 49 50 50 50 49 50 50 46 49 49 50 42 31 14 6 6 13 31 28 27 28 26 30 28 25 26 28 16 20 15 27 30 28 27 29 28 25 23 23 25
38 39 40 42 43 43 45 46 48 50 51 50 46 44 44 49 49 45 36 27 20 20 22 19 17 22 18 26 26 27 28 28 25 27 27 23 16 26 32 31 30 30 29 29 30 20 17
38 38 39 40 42 43 43 45 46 50 51 50 44 38 43 48 46 38 30 27 22 25 28 25 15 16 14 22 25 25 22 27 30 29 28 24 23 26 32 30 24 30 30 30 28 26 19
38 38 39 40 41 42 43 44 46 47 48 48 41 34 44 47 34 34 31 27 25 22 28 27 30 28 23 26 24 26 22 22 32 32 30 30 28 22 25 25 28 26 25 28 29 28 31
38 38 38 39 40 41 42 43 44 46 48 44 36 38 46 44 30 30 27 26 26 23 25 24 26 28 29 26 23 25 27 33 34 30 32 34 33 26 23 28 31 28 27 27 29 29 28
37 38 38 39 40 41 42 43 43 45 49 44 37 32 36 39 34 27 25 23 24 27 28 30 29 29 27 25 26 23 25 32 35 34 40 37 29 27 20 23 31 34 32 31 31 32 27
37 37 38 39 40 41 42 43 44 46 47 41 36 34 35 30 32 27 27 23 20 23 26 27 29 30 27 25 24 25 26 25 29 33 33 31 25 23 22 23 24 28 27 25 27 29 28
37 37 38 37 39 40 42 43 44 45 44 38 33 34 35 34 30 27 28 27 20 20 24 25 26 24 25 25 23 20 25 27 26 30 32 34 25 23 21 20 20 19 21 21 21 22 24
37 37 37 38 39 40 42 43 43 47 45 35 37 40 36 33 32 31 29 26 24 27 28 26 28 29 29 29 30 30 33 33 32 31 30 32 29 26 21 21 25 25 24 22 22 22 24
36 37 37 40 40 40 41 42 42 47 44 40 40 40 35 29 33 28 25 25 24 24 26 26 29 30 30 34 35 34 33 31 31 31 31 30 30 29 24 25 22 20 22 23 22 24 25
37 39 39 41 41 41 41 43 43 45 44 42 42 39 36 32 28 29 29 26 27 30 30 28 30 32 35 33 28 28 27 29 31 28 27 30 29 27 24 19 17 17 22 31 32 25 26
38 40 40 41 40 42 41 43 42 44 45 42 43 44 39 33 30 28 29 29 30 30 32 32 34 35 34 32 28 22 17 20 17 27 30 28 30 28 23 20 16 27 19 27 29 26 24
38 38 38 40 40 42 42 43 43 43 43 42 41 43 38 36 32 34 32 30 29 29 27 30 32 34 35 31 27 22 19 17 18 21 25 28 29 26 25 23 22 26 26 27 25 26 29
34 35 38 40 40 42 43 42 42 43 42 39 40 41 33 35 34 34 33 32 32 31 28 32 34 34 33 29 25 23 24 20 19 29 19 21 23 26 27 25 22 29 27 23 34 32 33
34 35 36 37 38 41 40 41 42 44 42 40 37 41 40 33 33 35 34 35 36 34 31 33 27 31 32 29 28 26 26 27 23 21 23 26 32 28 27 27 31 29 32 33 31 31 34

GFSGBSN_sfc_dewp_129.txt.gz
Dewpoint
58 58 59 62 62 62 62 62 60 58 57 57 56 55 55 54 54 53 52 52 53 52 51 53 54 55 44 28 23 43 47 48 43 39 34 31 29 27 23 17 20 19 13 22 23 26 26
57 57 57 57 59 61 62 60 58 57 56 56 55 54 53 52 53 53 52 52 52 51 51 52 53 54 41 27 27 34 34 35 36 36 31 29 27 28 24 22 21 28 27 26 25 23 22
56 57 56 56 57 57 60 58 56 55 55 55 54 53 51 51 53 53 52 52 53 52 52 52 52 46 35 27 28 33 35 30 31 32 31 30 31 28 23 25 28 27 24 19 20 20 20
56 56 56 56 56 56 56 56 55 55 54 54 53 53 51 52 52 51 51 52 53 53 52 52 53 43 32 28 32 33 33 32 35 32 32 32 31 28 28 28 26 21 22 16 14 20 22
54 56 56 56 56 56 56 55 55 55 55 54 53 53 53 52 51 51 51 53 53 53 52 53 47 41 28 40 29 27 30 29 32 32 36 35 34 28 29 25 19 22 12 15 16 18 15
53 54 54 56 56 56 55 55 54 54 54 53 53 53 53 52 51 51 52 52 52 52 50 44 39 36 30 18 27 32 33 28 29 29 33 33 30 27 26 20 14 12 17 13 12 17 19
51 52 52 53 55 55 55 55 54 54 54 53 53 53 53 51 51 51 50 45 37 40 38 27 26 23 23 28 35 36 36 29 31 28 26 29 26 22 20 22 19 16 15 10 10 11 18
49 50 51 52 52 55 55 55 54 54 54 53 53 53 52 52 51 52 49 38 32 41 31 33 32 27 28 36 29 32 37 32 30 23 22 28 25 20 17 22 21 21 17 14 15 16 22
47 47 48 49 51 53 54 55 54 54 53 53 52 52 52 51 51 49 41 38 39 42 28 19 20 24 22 27 23 26 36 31 27 22 20 24 18 21 18 24 22 19 17 17 16 17 20
44 44 45 46 49 50 51 55 54 54 53 52 52 51 51 51 46 40 40 40 41 47 26 16 19 28 24 27 23 16 34 29 26 21 17 22 20 20 19 21 20 18 16 21 19 17 15
42 43 43 44 45 47 49 52 53 53 53 52 51 51 51 48 42 36 37 40 45 44 21 18 26 33 29 23 16 17 23 31 22 20 18 17 20 20 21 18 18 19 24 22 20 20 20
41 41 41 43 43 44 45 47 51 52 53 52 51 50 50 45 47 42 44 42 46 33 20 21 29 29 32 28 19 29 19 28 26 23 24 21 24 25 22 22 23 24 25 24 24 22 21
40 41 42 41 43 44 43 45 46 51 52 51 50 50 48 41 37 47 50 47 32 21 18 17 25 29 28 26 23 30 22 26 22 19 22 26 24 23 24 25 26 26 24 22 20 21 20
38 39 39 42 42 43 44 44 45 47 52 51 50 50 46 41 42 48 50 38 22 18 17 16 22 28 26 24 26 28 25 22 23 19 16 21 18 22 26 22 24 25 23 18 11 12 9
38 38 38 39 41 43 43 43 45 44 48 51 50 48 43 45 47 51 43 29 21 18 14 13 22 26 25 24 24 28 27 22 21 22 19 20 18 22 24 24 20 22 25 21 21 20 20
37 37 38 39 40 41 44 44 44 46 44 47 47 45 43 45 49 46 37 30 23 19 13 8 10 22 19 24 23 27 25 24 23 23 26 20 17 21 26 25 25 22 24 25 27 17 15
37 38 39 39 39 40 41 43 43 44 45 46 46 37 43 47 46 40 31 30 25 20 16 17 12 16 17 22 24 26 23 24 25 24 26 22 19 22 29 26 17 22 26 26 25 23 17
37 38 38 38 39 40 40 41 43 44 44 43 41 32 45 47 35 37 34 30 27 23 23 26 28 22 12 20 22 23 21 23 29 29 25 25 23 16 22 22 22 20 24 24 30 24 29
37 37 38 39 39 39 40 41 42 44 44 42 33 36 46 44 30 33 29 26 25 24 22 23 23 26 27 20 17 19 19 33 31 30 28 28 30 23 18 17 25 26 22 27 27 28 26
36 37 38 38 38 39 39 41 41 43 43 42 33 31 37 38 37 28 26 25 24 26 24 25 22 22 25 25 24 18 20 31 34 33 38 36 29 21 16 19 30 32 27 24 24 30 29
35 37 38 38 38 39 39 40 41 43 43 42 33 33 36 30 33 33 27 24 22 23 28 31 32 26 23 22 19 20 20 26 30 35 29 34 27 22 21 21 30 31 31 29 29 29 33
37 37 38 37 38 39 38 39 40 42 43 35 33 34 37 32 32 31 28 24 18 17 20 25 26 26 25 26 23 21 24 25 23 25 25 32 30 28 26 26 19 17 16 18 18 22 26
36 37 37 37 38 38 38 40 41 42 43 34 36 39 38 35 31 30 29 23 21 20 19 21 23 22 23 24 24 25 26 30 29 28 29 29 29 26 24 21 20 20 17 17 16 14 16
36 37 37 37 38 38 39 40 41 42 43 41 40 40 37 33 35 29 23 22 22 21 23 24 26 26 27 36 36 37 34 31 31 31 32 35 34 32 28 24 22 22 20 18 19 18 20
34 36 37 38 39 39 40 40 42 42 43 42 45 42 38 34 31 28 27 25 24 25 32 33 31 32 33 37 32 31 28 32 31 27 26 28 28 27 24 19 17 14 16 31 28 23 24
36 37 39 39 39 40 40 41 42 42 44 43 44 46 41 35 32 28 27 25 27 28 29 28 33 37 35 33 31 25 20 19 15 22 24 23 27 27 24 20 17 26 17 20 26 26 25
37 39 38 38 40 41 40 41 42 44 42 43 43 45 41 35 35 32 29 28 27 29 29 30 31 35 36 33 28 26 20 16 20 20 27 26 26 25 25 22 21 20 17 24 24 26 29
36 36 38 39 38 40 42 42 44 42 42 42 43 44 40 37 34 33 31 31 31 31 29 31 32 33 34 29 26 24 24 20 19 29 18 24 22 22 24 23 21 20 22 26 34 33 32
34 35 34 37 38 42 43 42 42 44 44 43 40 38 37 31 34 33 33 33 31 29 27 33 27 29 31 29 26 24 25 25 21 20 19 24 30 27 24 26 36 31 31 33 32 31 34